Time,TemperatureF,DewpointF,PressureIn,WindDirection,WindDirectionDegrees,WindSpeedMPH,WindSpeedGustMPH,Humidity,HourlyPrecipIn,Conditions,Clouds,dailyrainin,SoftwareType,DateUTC
2013-09-13 00:00:00,59.8,58.4,29.79,N/A,-737280,0.0,0.0,95,0.00,,,0.00,Wunderground v.1.13,2013-09-13 04:00:00,
2013-09-13 00:01:00,62.3,60.8,29.78,NNW,348,0.0,0.0,95,0.00,,,0.00,Wunderground v.1.13,2013-09-13 04:01:00,
2013-09-13 00:02:00,62.2,60.8,29.78,NNW,348,0.0,0.0,95,0.00,,,0.00,Wunderground v.1.13,2013-09-13 04:02:00,
2013-09-13 00:05:00,59.9,58.8,29.79,N/A,-737280,0.0,0.0,96,0.00,,,0.00,Wunderground v.1.13,2013-09-13 04:05:00,
2013-09-13 00:07:00,62.1,60.7,29.78,NNW,348,0.0,0.0,95,0.00,,,0.00,Wunderground v.1.13,2013-09-13 04:07:00,
2013-09-13 00:10:00,60.0,58.9,29.79,NNW,338,0.0,1.0,96,0.00,,,0.00,Wunderground v.1.13,2013-09-13 04:10:00,
2013-09-13 00:12:00,62.0,60.6,29.79,NNW,348,0.0,0.0,95,0.00,,,0.00,Wunderground v.1.13,2013-09-13 04:12:00,
2013-09-13 00:15:00,60.0,58.9,29.79,NNW,338,0.0,1.0,96,0.00,,,0.00,Wunderground v.1.13,2013-09-13 04:15:00,
2013-09-13 00:17:00,61.9,60.5,29.79,NNW,348,0.0,0.0,95,0.00,,,0.00,Wunderground v.1.13,2013-09-13 04:17:00,
2013-09-13 00:20:00,60.0,58.9,29.79,N/A,-737280,0.0,0.0,96,0.00,,,0.00,Wunderground v.1.13,2013-09-13 04:20:00,
2013-09-13 00:22:00,61.8,60.4,29.79,NNW,348,0.0,0.0,95,0.00,,,0.00,Wunderground v.1.13,2013-09-13 04:22:00,
2013-09-13 00:25:00,60.0,58.9,29.79,NNW,338,0.0,1.0,96,0.00,,,0.00,Wunderground v.1.13,2013-09-13 04:25:00,
2013-09-13 00:27:00,61.8,60.4,29.79,NNW,348,0.0,0.0,95,0.00,,,0.00,Wunderground v.1.13,2013-09-13 04:27:00,
2013-09-13 00:30:00,60.1,59.0,29.79,N/A,-737280,0.0,0.0,96,0.00,,,0.00,Wunderground v.1.13,2013-09-13 04:30:00,
2013-09-13 00:32:00,61.8,60.4,29.79,NNW,348,0.0,0.0,95,0.00,,,0.00,Wunderground v.1.13,2013-09-13 04:32:00,
2013-09-13 00:35:00,60.1,59.0,29.79,NNW,338,0.0,1.0,96,0.00,,,0.00,Wunderground v.1.13,2013-09-13 04:35:00,
2013-09-13 00:37:00,61.7,60.3,29.79,NNW,348,0.0,0.0,95,0.00,,,0.00,Wunderground v.1.13,2013-09-13 04:37:00,
2013-09-13 00:40:00,60.1,59.0,29.80,N/A,-737280,0.0,0.0,96,0.00,,,0.00,Wunderground v.1.13,2013-09-13 04:40:00,
2013-09-13 00:42:00,61.6,60.2,29.79,NNW,348,0.0,0.0,95,0.00,,,0.00,Wunderground v.1.13,2013-09-13 04:42:00,
2013-09-13 00:45:00,60.1,59.0,29.80,NNW,338,0.0,1.0,96,0.00,,,0.00,Wunderground v.1.13,2013-09-13 04:45:00,
2013-09-13 00:47:00,61.5,60.1,29.79,NNW,348,0.0,0.0,95,0.00,,,0.00,Wunderground v.1.13,2013-09-13 04:47:00,
2013-09-13 00:50:00,60.1,59.0,29.80,N/A,-737280,0.0,0.0,96,0.00,,,0.00,Wunderground v.1.13,2013-09-13 04:50:00,
2013-09-13 00:52:00,61.4,60.0,29.78,NNW,348,0.0,0.0,95,0.00,,,0.00,Wunderground v.1.13,2013-09-13 04:52:00,
2013-09-13 00:55:00,60.0,58.9,29.80,N/A,-737280,0.0,0.0,96,0.00,,,0.00,Wunderground v.1.13,2013-09-13 04:55:00,
2013-09-13 00:57:00,61.3,59.9,29.78,NNW,348,0.0,0.0,95,0.00,,,0.00,Wunderground v.1.13,2013-09-13 04:57:00,
2013-09-13 01:00:00,59.9,58.8,29.80,N/A,-737280,0.0,0.0,96,0.00,,,0.00,Wunderground v.1.13,2013-09-13 05:00:00,
2013-09-13 01:03:00,61.1,59.7,29.78,NNW,348,0.0,0.0,95,0.00,,,0.00,Wunderground v.1.13,2013-09-13 05:03:00,
2013-09-13 01:05:00,59.9,58.8,29.80,N/A,-737280,0.0,0.0,96,0.00,,,0.00,Wunderground v.1.13,2013-09-13 05:05:00,
2013-09-13 01:08:00,60.9,59.5,29.78,NNW,348,0.0,0.0,95,0.00,,,0.00,Wunderground v.1.13,2013-09-13 05:08:00,
2013-09-13 01:10:00,59.9,58.8,29.80,N/A,-737280,0.0,0.0,96,0.00,,,0.00,Wunderground v.1.13,2013-09-13 05:10:00,
2013-09-13 01:14:00,60.7,59.3,29.78,NNW,348,0.0,0.0,95,0.00,,,0.00,Wunderground v.1.13,2013-09-13 05:14:00,
2013-09-13 01:15:00,59.9,58.8,29.79,NNW,338,0.0,1.0,96,0.00,,,0.00,Wunderground v.1.13,2013-09-13 05:15:00,
2013-09-13 01:20:00,60.5,59.1,29.78,NNW,348,0.0,0.0,95,0.00,,,0.00,Wunderground v.1.13,2013-09-13 05:20:00,
2013-09-13 01:25:00,59.8,58.7,29.78,N/A,-737280,0.0,0.0,96,0.00,,,0.00,Wunderground v.1.13,2013-09-13 05:25:00,
2013-09-13 01:26:00,60.4,59.0,29.78,NNW,348,0.0,0.0,95,0.00,,,0.00,Wunderground v.1.13,2013-09-13 05:26:00,
2013-09-13 01:30:00,59.7,58.6,29.79,N/A,-737280,0.0,0.0,96,0.00,,,0.00,Wunderground v.1.13,2013-09-13 05:30:00,
2013-09-13 01:31:00,60.2,58.8,29.79,NNW,348,0.0,0.0,95,0.00,,,0.00,Wunderground v.1.13,2013-09-13 05:31:00,
2013-09-13 01:35:00,59.6,58.5,29.79,N/A,-737280,0.0,0.0,96,0.00,,,0.00,Wunderground v.1.13,2013-09-13 05:35:00,
2013-09-13 01:37:00,60.0,58.6,29.79,NNW,348,0.0,0.0,95,0.00,,,0.00,Wunderground v.1.13,2013-09-13 05:37:00,
2013-09-13 01:40:00,59.5,58.4,29.78,N/A,-737280,0.0,0.0,96,0.00,,,0.00,Wunderground v.1.13,2013-09-13 05:40:00,
2013-09-13 01:43:00,59.9,58.5,29.79,NNW,348,0.0,0.0,95,0.00,,,0.00,Wunderground v.1.13,2013-09-13 05:43:00,
2013-09-13 01:45:00,59.4,58.3,29.78,N/A,-737280,0.0,0.0,96,0.00,,,0.00,Wunderground v.1.13,2013-09-13 05:45:00,
2013-09-13 01:49:00,59.8,58.4,29.79,NNW,348,0.0,0.0,95,0.00,,,0.00,Wunderground v.1.13,2013-09-13 05:49:00,
2013-09-13 01:50:00,59.2,58.1,29.77,N/A,-737280,0.0,0.0,96,0.00,,,0.00,Wunderground v.1.13,2013-09-13 05:50:00,
2013-09-13 01:54:00,59.9,58.8,29.79,NNW,348,0.0,0.0,96,0.00,,,0.00,Wunderground v.1.13,2013-09-13 05:54:00,
2013-09-13 01:55:00,59.0,57.9,29.77,N/A,-737280,0.0,0.0,96,0.00,,,0.00,Wunderground v.1.13,2013-09-13 05:55:00,
2013-09-13 02:00:00,60.0,58.9,29.79,NNW,348,0.0,0.0,96,0.00,,,0.00,Wunderground v.1.13,2013-09-13 06:00:00,
2013-09-13 02:05:00,60.0,58.9,29.79,NNW,348,0.0,0.0,96,0.00,,,0.00,Wunderground v.1.13,2013-09-13 06:05:00,
2013-09-13 02:10:00,58.5,57.4,29.78,N/A,-737280,0.0,0.0,96,0.00,,,0.00,Wunderground v.1.13,2013-09-13 06:10:00,
2013-09-13 02:11:00,60.0,58.9,29.79,NNW,348,0.0,1.0,96,0.00,,,0.00,Wunderground v.1.13,2013-09-13 06:11:00,
2013-09-13 02:15:00,58.4,57.3,29.78,N/A,-737280,0.0,0.0,96,0.00,,,0.00,Wunderground v.1.13,2013-09-13 06:15:00,
2013-09-13 02:17:00,60.0,58.9,29.79,NNW,348,1.0,1.0,96,0.00,,,0.00,Wunderground v.1.13,2013-09-13 06:17:00,
2013-09-13 02:20:00,58.3,57.2,29.78,N/A,-737280,0.0,0.0,96,0.00,,,0.00,Wunderground v.1.13,2013-09-13 06:20:00,
2013-09-13 02:23:00,60.1,59.0,29.79,NNW,348,0.0,0.0,96,0.00,,,0.00,Wunderground v.1.13,2013-09-13 06:23:00,
2013-09-13 02:25:00,58.1,57.0,29.78,N/A,-737280,0.0,0.0,96,0.00,,,0.00,Wunderground v.1.13,2013-09-13 06:25:00,
2013-09-13 02:28:00,60.1,59.0,29.80,NNW,343,0.0,3.0,96,0.00,,,0.00,Wunderground v.1.13,2013-09-13 06:28:00,
2013-09-13 02:30:00,58.1,57.0,29.78,N/A,-737280,0.0,0.0,96,0.00,,,0.00,Wunderground v.1.13,2013-09-13 06:30:00,
2013-09-13 02:34:00,60.1,59.0,29.80,NNW,346,0.0,2.0,96,0.00,,,0.00,Wunderground v.1.13,2013-09-13 06:34:00,
2013-09-13 02:35:00,58.0,56.9,29.77,N/A,-737280,0.0,0.0,96,0.00,,,0.00,Wunderground v.1.13,2013-09-13 06:35:00,
2013-09-13 02:40:00,60.0,58.9,29.80,NNW,346,0.0,0.0,96,0.00,,,0.00,Wunderground v.1.13,2013-09-13 06:40:00,
2013-09-13 02:45:00,60.0,58.9,29.80,NNW,346,0.0,0.0,96,0.00,,,0.00,Wunderground v.1.13,2013-09-13 06:45:00,
2013-09-13 02:50:00,57.6,56.5,29.77,N/A,-737280,0.0,0.0,96,0.00,,,0.00,Wunderground v.1.13,2013-09-13 06:50:00,
2013-09-13 02:51:00,59.9,58.8,29.80,NNW,346,0.0,0.0,96,0.00,,,0.00,Wunderground v.1.13,2013-09-13 06:51:00,
2013-09-13 02:55:00,57.5,56.4,29.77,N/A,-737280,0.0,0.0,96,0.00,,,0.00,Wunderground v.1.13,2013-09-13 06:55:00,
2013-09-13 02:57:00,59.9,58.8,29.80,NNW,346,0.0,0.0,96,0.00,,,0.00,Wunderground v.1.13,2013-09-13 06:57:00,
2013-09-13 03:00:00,57.3,56.2,29.76,N/A,-737280,0.0,0.0,96,0.00,,,0.00,Wunderground v.1.13,2013-09-13 07:00:00,
2013-09-13 03:02:00,59.9,58.8,29.79,NNW,346,0.0,0.0,96,0.00,,,0.00,Wunderground v.1.13,2013-09-13 07:02:00,
2013-09-13 03:05:00,57.2,56.1,29.76,N/A,-737280,0.0,0.0,96,0.00,,,0.00,Wunderground v.1.13,2013-09-13 07:05:00,
2013-09-13 03:07:00,59.9,58.8,29.78,NNW,346,0.0,1.0,96,0.00,,,0.00,Wunderground v.1.13,2013-09-13 07:07:00,
2013-09-13 03:10:00,57.1,56.0,29.76,N/A,-737280,0.0,0.0,96,0.00,,,0.00,Wunderground v.1.13,2013-09-13 07:10:00,
2013-09-13 03:12:00,59.8,58.7,29.78,NNW,346,0.0,0.0,96,0.00,,,0.00,Wunderground v.1.13,2013-09-13 07:12:00,
2013-09-13 03:15:00,56.9,55.8,29.76,N/A,-737280,0.0,0.0,96,0.00,,,0.00,Wunderground v.1.13,2013-09-13 07:15:00,
2013-09-13 03:17:00,59.7,58.6,29.79,NNW,346,0.0,0.0,96,0.00,,,0.00,Wunderground v.1.13,2013-09-13 07:17:00,
2013-09-13 03:20:00,56.8,55.7,29.77,N/A,-737280,0.0,0.0,96,0.00,,,0.00,Wunderground v.1.13,2013-09-13 07:20:00,
2013-09-13 03:22:00,59.6,58.5,29.79,NNW,346,0.0,0.0,96,0.00,,,0.00,Wunderground v.1.13,2013-09-13 07:22:00,
2013-09-13 03:25:00,56.7,55.6,29.76,N/A,-737280,0.0,0.0,96,0.00,,,0.00,Wunderground v.1.13,2013-09-13 07:25:00,
2013-09-13 03:27:00,59.5,58.4,29.78,NNW,346,0.0,0.0,96,0.00,,,0.00,Wunderground v.1.13,2013-09-13 07:27:00,
2013-09-13 03:30:00,56.6,55.5,29.77,N/A,-737280,0.0,0.0,96,0.00,,,0.00,Wunderground v.1.13,2013-09-13 07:30:00,
2013-09-13 03:32:00,59.4,58.3,29.78,NNW,347,0.0,0.0,96,0.00,,,0.00,Wunderground v.1.13,2013-09-13 07:32:00,
2013-09-13 03:35:00,56.4,55.3,29.77,N/A,-737280,0.0,0.0,96,0.00,,,0.00,Wunderground v.1.13,2013-09-13 07:35:00,
2013-09-13 03:37:00,59.3,58.2,29.77,NNW,346,0.0,0.0,96,0.00,,,0.00,Wunderground v.1.13,2013-09-13 07:37:00,
2013-09-13 03:40:00,56.2,55.1,29.77,N/A,-737280,0.0,0.0,96,0.00,,,0.00,Wunderground v.1.13,2013-09-13 07:40:00,
2013-09-13 03:42:00,59.1,58.0,29.77,NNW,346,0.0,0.0,96,0.00,,,0.00,Wunderground v.1.13,2013-09-13 07:42:00,
2013-09-13 03:45:00,56.1,55.0,29.77,N/A,-737280,0.0,0.0,96,0.00,,,0.00,Wunderground v.1.13,2013-09-13 07:45:00,
2013-09-13 03:47:00,58.9,57.8,29.77,NNW,346,0.0,0.0,96,0.00,,,0.00,Wunderground v.1.13,2013-09-13 07:47:00,
2013-09-13 03:50:00,55.9,54.8,29.78,N/A,-737280,0.0,0.0,96,0.00,,,0.00,Wunderground v.1.13,2013-09-13 07:50:00,
2013-09-13 03:52:00,58.7,57.6,29.77,NNW,346,0.0,0.0,96,0.00,,,0.00,Wunderground v.1.13,2013-09-13 07:52:00,
2013-09-13 03:55:00,55.8,54.7,29.78,N/A,-737280,0.0,0.0,96,0.00,,,0.00,Wunderground v.1.13,2013-09-13 07:55:00,
2013-09-13 03:57:00,58.6,57.5,29.78,NNW,346,0.0,0.0,96,0.00,,,0.00,Wunderground v.1.13,2013-09-13 07:57:00,
2013-09-13 04:00:00,55.6,54.5,29.78,N/A,-737280,0.0,0.0,96,0.00,,,0.00,Wunderground v.1.13,2013-09-13 08:00:00,
2013-09-13 04:02:00,58.4,57.3,29.78,NNW,347,0.0,0.0,96,0.00,,,0.00,Wunderground v.1.13,2013-09-13 08:02:00,
2013-09-13 04:05:00,55.5,54.4,29.78,N/A,-737280,0.0,0.0,96,0.00,,,0.00,Wunderground v.1.13,2013-09-13 08:05:00,
2013-09-13 04:07:00,58.3,57.2,29.77,NNW,347,0.0,0.0,96,0.00,,,0.00,Wunderground v.1.13,2013-09-13 08:07:00,
2013-09-13 04:10:00,55.4,54.3,29.78,N/A,-737280,0.0,0.0,96,0.00,,,0.00,Wunderground v.1.13,2013-09-13 08:10:00,
2013-09-13 04:12:00,58.2,57.1,29.78,NNW,347,0.0,0.0,96,0.00,,,0.00,Wunderground v.1.13,2013-09-13 08:12:00,
2013-09-13 04:15:00,55.3,54.2,29.79,N/A,-737280,0.0,0.0,96,0.00,,,0.00,Wunderground v.1.13,2013-09-13 08:15:00,
2013-09-13 04:17:00,58.1,57.0,29.78,NNW,346,0.0,0.0,96,0.00,,,0.00,Wunderground v.1.13,2013-09-13 08:17:00,
2013-09-13 04:20:00,55.3,54.2,29.79,N/A,-737280,0.0,0.0,96,0.00,,,0.00,Wunderground v.1.13,2013-09-13 08:20:00,
2013-09-13 04:22:00,58.0,56.9,29.77,NNW,347,0.0,0.0,96,0.00,,,0.00,Wunderground v.1.13,2013-09-13 08:22:00,
2013-09-13 04:25:00,55.4,54.3,29.79,N/A,-737280,0.0,0.0,96,0.00,,,0.00,Wunderground v.1.13,2013-09-13 08:25:00,
2013-09-13 04:27:00,57.9,56.8,29.77,NNW,346,0.0,0.0,96,0.00,,,0.00,Wunderground v.1.13,2013-09-13 08:27:00,
2013-09-13 04:30:00,55.4,54.3,29.79,N/A,-737280,0.0,0.0,96,0.00,,,0.00,Wunderground v.1.13,2013-09-13 08:30:00,
2013-09-13 04:32:00,57.8,56.7,29.76,NNW,346,0.0,0.0,96,0.00,,,0.00,Wunderground v.1.13,2013-09-13 08:32:00,
2013-09-13 04:35:00,55.4,54.3,29.80,N/A,-737280,0.0,0.0,96,0.00,,,0.00,Wunderground v.1.13,2013-09-13 08:35:00,
2013-09-13 04:37:00,57.7,56.6,29.77,NNW,346,0.0,0.0,96,0.00,,,0.00,Wunderground v.1.13,2013-09-13 08:37:00,
2013-09-13 04:40:00,55.4,54.3,29.80,N/A,-737280,0.0,0.0,96,0.00,,,0.00,Wunderground v.1.13,2013-09-13 08:40:00,
2013-09-13 04:42:00,57.5,56.4,29.77,NNW,346,0.0,0.0,96,0.00,,,0.00,Wunderground v.1.13,2013-09-13 08:42:00,
2013-09-13 04:45:00,55.4,54.3,29.80,N/A,-737280,0.0,0.0,96,0.00,,,0.00,Wunderground v.1.13,2013-09-13 08:45:00,
2013-09-13 04:47:00,57.4,56.3,29.77,NNW,347,0.0,0.0,96,0.00,,,0.00,Wunderground v.1.13,2013-09-13 08:47:00,
2013-09-13 04:50:00,55.4,54.3,29.80,N/A,-737280,0.0,0.0,96,0.00,,,0.00,Wunderground v.1.13,2013-09-13 08:50:00,
2013-09-13 04:52:00,57.3,56.2,29.76,NNW,346,0.0,0.0,96,0.00,,,0.00,Wunderground v.1.13,2013-09-13 08:52:00,
2013-09-13 04:55:00,55.4,54.3,29.80,N/A,-737280,0.0,0.0,96,0.00,,,0.00,Wunderground v.1.13,2013-09-13 08:55:00,
2013-09-13 04:57:00,57.1,56.0,29.76,NNW,346,0.0,0.0,96,0.00,,,0.00,Wunderground v.1.13,2013-09-13 08:57:00,
2013-09-13 05:00:00,55.4,54.3,29.80,N/A,-737280,0.0,0.0,96,0.00,,,0.00,Wunderground v.1.13,2013-09-13 09:00:00,
2013-09-13 05:02:00,57.0,55.9,29.76,NNW,346,0.0,0.0,96,0.00,,,0.00,Wunderground v.1.13,2013-09-13 09:02:00,
2013-09-13 05:05:00,55.4,54.3,29.80,N/A,-737280,0.0,0.0,96,0.00,,,0.00,Wunderground v.1.13,2013-09-13 09:05:00,
2013-09-13 05:07:00,56.8,55.7,29.76,NNW,347,0.0,0.0,96,0.00,,,0.00,Wunderground v.1.13,2013-09-13 09:07:00,
2013-09-13 05:10:00,55.4,54.3,29.80,N/A,-737280,0.0,0.0,96,0.00,,,0.00,Wunderground v.1.13,2013-09-13 09:10:00,
2013-09-13 05:12:00,56.7,55.6,29.77,NNW,346,0.0,0.0,96,0.00,,,0.00,Wunderground v.1.13,2013-09-13 09:12:00,
2013-09-13 05:15:00,55.5,54.4,29.80,N/A,-737280,0.0,0.0,96,0.00,,,0.00,Wunderground v.1.13,2013-09-13 09:15:00,
2013-09-13 05:17:00,56.6,55.5,29.77,NNW,346,0.0,0.0,96,0.00,,,0.00,Wunderground v.1.13,2013-09-13 09:17:00,
2013-09-13 05:20:00,55.6,54.8,29.81,N/A,-737280,0.0,0.0,97,0.00,,,0.00,Wunderground v.1.13,2013-09-13 09:20:00,
2013-09-13 05:22:00,56.4,55.3,29.77,NNW,346,0.0,0.0,96,0.00,,,0.00,Wunderground v.1.13,2013-09-13 09:22:00,
2013-09-13 05:25:00,55.7,54.9,29.81,N/A,-737280,0.0,0.0,97,0.00,,,0.00,Wunderground v.1.13,2013-09-13 09:25:00,
2013-09-13 05:27:00,56.3,55.2,29.77,NNW,347,0.0,0.0,96,0.00,,,0.00,Wunderground v.1.13,2013-09-13 09:27:00,
2013-09-13 05:30:00,55.8,55.0,29.81,N/A,-737280,0.0,0.0,97,0.00,,,0.00,Wunderground v.1.13,2013-09-13 09:30:00,
2013-09-13 05:32:00,56.2,55.1,29.77,NNW,347,0.0,0.0,96,0.00,,,0.00,Wunderground v.1.13,2013-09-13 09:32:00,
2013-09-13 05:35:00,55.9,55.1,29.81,N/A,-737280,0.0,0.0,97,0.00,,,0.00,Wunderground v.1.13,2013-09-13 09:35:00,
2013-09-13 05:37:00,56.0,54.9,29.78,NNW,346,0.0,0.0,96,0.00,,,0.00,Wunderground v.1.13,2013-09-13 09:37:00,
2013-09-13 05:40:00,56.0,55.2,29.82,N/A,-737280,0.0,0.0,97,0.00,,,0.00,Wunderground v.1.13,2013-09-13 09:40:00,
2013-09-13 05:42:00,55.8,54.7,29.78,NNW,346,0.0,0.0,96,0.00,,,0.00,Wunderground v.1.13,2013-09-13 09:42:00,
2013-09-13 05:45:00,56.1,55.3,29.82,N/A,-737280,0.0,0.0,97,0.00,,,0.00,Wunderground v.1.13,2013-09-13 09:45:00,
2013-09-13 05:47:00,55.7,54.6,29.78,NNW,346,0.0,0.0,96,0.00,,,0.00,Wunderground v.1.13,2013-09-13 09:47:00,
2013-09-13 05:50:00,56.2,55.4,29.82,N/A,-737280,0.0,0.0,97,0.00,,,0.00,Wunderground v.1.13,2013-09-13 09:50:00,
2013-09-13 05:52:00,55.5,54.4,29.78,NNW,346,0.0,0.0,96,0.00,,,0.00,Wunderground v.1.13,2013-09-13 09:52:00,
2013-09-13 05:55:00,56.3,55.5,29.82,N/A,-737280,0.0,0.0,97,0.00,,,0.00,Wunderground v.1.13,2013-09-13 09:55:00,
2013-09-13 05:57:00,55.4,54.3,29.78,NNW,347,0.0,0.0,96,0.00,,,0.00,Wunderground v.1.13,2013-09-13 09:57:00,
2013-09-13 06:00:00,56.4,55.6,29.82,NNW,338,0.0,1.0,97,0.00,,,0.00,Wunderground v.1.13,2013-09-13 10:00:00,
2013-09-13 06:02:00,55.3,54.2,29.79,NNW,346,0.0,0.0,96,0.00,,,0.00,Wunderground v.1.13,2013-09-13 10:02:00,
2013-09-13 06:05:00,56.6,55.8,29.82,N/A,-737280,0.0,0.0,97,0.00,,,0.00,Wunderground v.1.13,2013-09-13 10:05:00,
2013-09-13 06:07:00,55.3,54.2,29.79,NNW,346,0.0,0.0,96,0.00,,,0.00,Wunderground v.1.13,2013-09-13 10:07:00,
2013-09-13 06:10:00,56.6,55.8,29.82,N/A,-737280,0.0,0.0,97,0.00,,,0.00,Wunderground v.1.13,2013-09-13 10:10:00,
2013-09-13 06:12:00,55.3,54.2,29.79,NNW,347,0.0,0.0,96,0.00,,,0.00,Wunderground v.1.13,2013-09-13 10:12:00,
2013-09-13 06:15:00,56.7,55.9,29.82,NNW,338,0.0,1.0,97,0.00,,,0.00,Wunderground v.1.13,2013-09-13 10:15:00,
2013-09-13 06:17:00,55.4,55.1,29.79,NNW,346,0.0,0.0,99,0.00,,,0.00,Wunderground v.1.13,2013-09-13 10:17:00,
2013-09-13 06:20:00,56.8,56.0,29.82,N/A,-737280,0.0,0.0,97,0.00,,,0.00,Wunderground v.1.13,2013-09-13 10:20:00,
2013-09-13 06:22:00,55.4,54.3,29.80,NNW,346,0.0,0.0,96,0.00,,,0.00,Wunderground v.1.13,2013-09-13 10:22:00,
2013-09-13 06:25:00,56.8,56.0,29.83,N/A,-737280,0.0,0.0,97,0.00,,,0.00,Wunderground v.1.13,2013-09-13 10:25:00,
2013-09-13 06:27:00,55.4,54.3,29.80,NNW,346,0.0,0.0,96,0.00,,,0.00,Wunderground v.1.13,2013-09-13 10:27:00,
2013-09-13 06:30:00,56.9,56.1,29.83,N/A,-737280,0.0,0.0,97,0.00,,,0.00,Wunderground v.1.13,2013-09-13 10:30:00,
2013-09-13 06:32:00,55.4,54.3,29.80,NNW,346,0.0,0.0,96,0.00,,,0.00,Wunderground v.1.13,2013-09-13 10:32:00,
2013-09-13 06:35:00,57.0,56.2,29.83,N/A,-737280,0.0,0.0,97,0.00,,,0.00,Wunderground v.1.13,2013-09-13 10:35:00,
2013-09-13 06:37:00,55.4,54.3,29.80,NNW,347,0.0,0.0,96,0.00,,,0.00,Wunderground v.1.13,2013-09-13 10:37:00,
2013-09-13 06:40:00,57.1,56.3,29.83,N/A,-737280,0.0,0.0,97,0.00,,,0.00,Wunderground v.1.13,2013-09-13 10:40:00,
2013-09-13 06:42:00,55.3,54.2,29.80,NNW,347,0.0,0.0,96,0.00,,,0.00,Wunderground v.1.13,2013-09-13 10:42:00,
2013-09-13 06:45:00,57.2,56.4,29.83,N/A,-737280,0.0,0.0,97,0.00,,,0.00,Wunderground v.1.13,2013-09-13 10:45:00,
2013-09-13 06:47:00,55.3,54.2,29.80,NNW,346,0.0,0.0,96,0.00,,,0.00,Wunderground v.1.13,2013-09-13 10:47:00,
2013-09-13 06:50:00,57.4,56.6,29.83,NNW,338,0.0,1.0,97,0.00,,,0.00,Wunderground v.1.13,2013-09-13 10:50:00,
2013-09-13 06:52:00,55.4,55.4,29.80,NNW,346,0.0,0.0,100,0.00,,,0.00,Wunderground v.1.13,2013-09-13 10:52:00,
2013-09-13 06:55:00,57.5,56.7,29.83,N/A,-737280,0.0,0.0,97,0.00,,,0.00,Wunderground v.1.13,2013-09-13 10:55:00,
2013-09-13 06:57:00,55.4,54.3,29.80,NNW,346,0.0,0.0,96,0.00,,,0.00,Wunderground v.1.13,2013-09-13 10:57:00,
2013-09-13 07:00:00,57.5,56.7,29.83,NNW,338,0.0,1.0,97,0.00,,,0.00,Wunderground v.1.13,2013-09-13 11:00:00,
2013-09-13 07:02:00,55.5,54.4,29.80,NNW,346,0.0,0.0,96,0.00,,,0.00,Wunderground v.1.13,2013-09-13 11:02:00,
2013-09-13 07:05:00,57.5,56.7,29.83,NNW,338,1.0,2.0,97,0.00,,,0.00,Wunderground v.1.13,2013-09-13 11:05:00,
2013-09-13 07:07:00,55.6,54.8,29.81,NNW,347,0.0,0.0,97,0.00,,,0.00,Wunderground v.1.13,2013-09-13 11:07:00,
2013-09-13 07:10:00,57.3,56.5,29.83,NNW,338,2.0,6.0,97,0.00,,,0.00,Wunderground v.1.13,2013-09-13 11:10:00,
2013-09-13 07:12:00,55.7,54.9,29.81,NNW,346,0.0,0.0,97,0.00,,,0.00,Wunderground v.1.13,2013-09-13 11:12:00,
2013-09-13 07:15:00,57.2,56.4,29.83,N/A,-737280,0.0,0.0,97,0.00,,,0.00,Wunderground v.1.13,2013-09-13 11:15:00,
2013-09-13 07:17:00,55.8,55.0,29.81,NNW,346,0.0,0.0,97,0.00,,,0.00,Wunderground v.1.13,2013-09-13 11:17:00,
2013-09-13 07:20:00,57.2,56.4,29.83,North,0,0.0,1.0,97,0.00,,,0.00,Wunderground v.1.13,2013-09-13 11:20:00,
2013-09-13 07:22:00,55.9,55.1,29.81,NNW,346,0.0,0.0,97,0.00,,,0.00,Wunderground v.1.13,2013-09-13 11:22:00,
2013-09-13 07:25:00,57.2,56.4,29.83,North,0,4.0,7.0,97,0.00,,,0.00,Wunderground v.1.13,2013-09-13 11:25:00,
2013-09-13 07:27:00,56.0,55.2,29.82,NNW,346,0.0,0.0,97,0.00,,,0.00,Wunderground v.1.13,2013-09-13 11:27:00,
2013-09-13 07:30:00,57.2,56.4,29.83,North,0,0.0,1.0,97,0.00,,,0.00,Wunderground v.1.13,2013-09-13 11:30:00,
2013-09-13 07:32:00,56.1,55.3,29.82,NNW,346,0.0,0.0,97,0.00,,,0.00,Wunderground v.1.13,2013-09-13 11:32:00,
2013-09-13 07:35:00,57.3,56.2,29.84,N/A,-737280,0.0,0.0,96,0.00,,,0.00,Wunderground v.1.13,2013-09-13 11:35:00,
2013-09-13 07:37:00,56.2,55.4,29.82,NNW,346,0.0,0.0,97,0.00,,,0.00,Wunderground v.1.13,2013-09-13 11:37:00,
2013-09-13 07:40:00,57.5,56.7,29.84,N/A,-737280,0.0,0.0,97,0.00,,,0.00,Wunderground v.1.13,2013-09-13 11:40:00,
2013-09-13 07:42:00,56.3,55.5,29.82,NNW,346,0.0,0.0,97,0.00,,,0.00,Wunderground v.1.13,2013-09-13 11:42:00,
2013-09-13 07:45:00,57.8,57.0,29.83,N/A,-737280,0.0,0.0,97,0.00,,,0.00,Wunderground v.1.13,2013-09-13 11:45:00,
2013-09-13 07:47:00,56.4,55.6,29.82,NNW,346,0.0,1.0,97,0.00,,,0.00,Wunderground v.1.13,2013-09-13 11:47:00,
2013-09-13 07:50:00,58.1,57.3,29.84,N/A,-737280,0.0,0.0,97,0.00,,,0.00,Wunderground v.1.13,2013-09-13 11:50:00,
2013-09-13 07:52:00,56.5,55.7,29.82,NNW,346,0.0,0.0,97,0.00,,,0.00,Wunderground v.1.13,2013-09-13 11:52:00,
2013-09-13 07:55:00,58.5,57.4,29.83,North,0,0.0,1.0,96,0.00,,,0.00,Wunderground v.1.13,2013-09-13 11:55:00,
2013-09-13 07:57:00,56.6,55.8,29.82,NNW,346,0.0,0.0,97,0.00,,,0.00,Wunderground v.1.13,2013-09-13 11:57:00,
2013-09-13 08:00:00,58.5,57.4,29.83,NNW,338,0.0,2.0,96,0.00,,,0.00,Wunderground v.1.13,2013-09-13 12:00:00,
2013-09-13 08:02:00,56.7,55.9,29.82,NNW,346,0.0,0.0,97,0.00,,,0.00,Wunderground v.1.13,2013-09-13 12:02:00,
2013-09-13 08:05:00,58.6,57.5,29.83,NNW,338,0.0,4.0,96,0.00,,,0.00,Wunderground v.1.13,2013-09-13 12:05:00,
2013-09-13 08:07:00,56.7,55.9,29.82,NNW,346,0.0,1.0,97,0.00,,,0.00,Wunderground v.1.13,2013-09-13 12:07:00,
2013-09-13 08:10:00,58.9,57.5,29.83,NW,315,0.0,1.0,95,0.00,,,0.00,Wunderground v.1.13,2013-09-13 12:10:00,
2013-09-13 08:12:00,56.8,56.0,29.83,NNW,346,0.0,0.0,97,0.00,,,0.00,Wunderground v.1.13,2013-09-13 12:12:00,
2013-09-13 08:15:00,59.3,57.6,29.83,NNW,338,4.0,7.0,94,0.00,,,0.00,Wunderground v.1.13,2013-09-13 12:15:00,
2013-09-13 08:17:00,56.8,56.0,29.83,NNW,346,0.0,0.0,97,0.00,,,0.00,Wunderground v.1.13,2013-09-13 12:17:00,
2013-09-13 08:20:00,59.4,57.1,29.83,NNW,338,0.0,1.0,92,0.00,,,0.00,Wunderground v.1.13,2013-09-13 12:20:00,
2013-09-13 08:22:00,56.9,56.1,29.83,NNW,346,0.0,0.0,97,0.00,,,0.00,Wunderground v.1.13,2013-09-13 12:22:00,
2013-09-13 08:25:00,59.6,57.0,29.84,NNW,338,0.0,1.0,91,0.00,,,0.00,Wunderground v.1.13,2013-09-13 12:25:00,
2013-09-13 08:27:00,57.0,56.2,29.83,NNW,347,0.0,0.0,97,0.00,,,0.00,Wunderground v.1.13,2013-09-13 12:27:00,
2013-09-13 08:30:00,60.2,56.9,29.83,NNW,338,0.0,2.0,89,0.00,,,0.00,Wunderground v.1.13,2013-09-13 12:30:00,
2013-09-13 08:32:00,57.2,56.4,29.83,NNW,346,0.0,0.0,97,0.00,,,0.00,Wunderground v.1.13,2013-09-13 12:32:00,
2013-09-13 08:35:00,60.6,56.7,29.83,NNW,338,0.0,1.0,87,0.00,,,0.00,Wunderground v.1.13,2013-09-13 12:35:00,
2013-09-13 08:37:00,57.3,56.5,29.83,NNW,346,0.0,0.0,97,0.00,,,0.00,Wunderground v.1.13,2013-09-13 12:37:00,
2013-09-13 08:40:00,60.8,56.6,29.84,NNW,338,0.0,2.0,86,0.00,,,0.00,Wunderground v.1.13,2013-09-13 12:40:00,
2013-09-13 08:42:00,57.5,56.7,29.83,NNW,346,1.0,2.0,97,0.00,,,0.00,Wunderground v.1.13,2013-09-13 12:42:00,
2013-09-13 08:45:00,61.0,56.8,29.83,NNW,338,1.0,4.0,86,0.00,,,0.00,Wunderground v.1.13,2013-09-13 12:45:00,
2013-09-13 08:47:00,57.5,56.7,29.83,NNW,346,0.0,1.0,97,0.00,,,0.00,Wunderground v.1.13,2013-09-13 12:47:00,
2013-09-13 08:50:00,61.5,56.9,29.84,NNW,338,0.0,1.0,85,0.00,,,0.00,Wunderground v.1.13,2013-09-13 12:50:00,
2013-09-13 08:52:00,57.6,56.8,29.83,NNW,346,0.0,1.0,97,0.00,,,0.00,Wunderground v.1.13,2013-09-13 12:52:00,
2013-09-13 08:55:00,62.1,56.9,29.84,N/A,-737280,0.0,0.0,83,0.00,,,0.00,Wunderground v.1.13,2013-09-13 12:55:00,
2013-09-13 08:57:00,57.4,56.6,29.83,NNW,346,0.0,5.0,97,0.00,,,0.00,Wunderground v.1.13,2013-09-13 12:57:00,
2013-09-13 09:00:00,62.1,56.2,29.84,NNW,338,1.0,4.0,81,0.00,,,0.00,Wunderground v.1.13,2013-09-13 13:00:00,
2013-09-13 09:02:00,57.3,56.5,29.83,NNW,348,0.0,5.0,97,0.00,,,0.00,Wunderground v.1.13,2013-09-13 13:02:00,
2013-09-13 09:05:00,62.2,56.6,29.84,N/A,-737280,0.0,0.0,82,0.00,,,0.00,Wunderground v.1.13,2013-09-13 13:05:00,
2013-09-13 09:07:00,57.2,56.4,29.83,North,350,0.0,1.0,97,0.00,,,0.00,Wunderground v.1.13,2013-09-13 13:07:00,
2013-09-13 09:10:00,62.7,57.1,29.84,N/A,-737280,0.0,0.0,82,0.00,,,0.00,Wunderground v.1.13,2013-09-13 13:10:00,
2013-09-13 09:12:00,57.2,56.4,29.83,North,350,0.0,1.0,97,0.00,,,0.00,Wunderground v.1.13,2013-09-13 13:12:00,
2013-09-13 09:15:00,62.8,57.2,29.84,N/A,-737280,0.0,0.0,82,0.00,,,0.00,Wunderground v.1.13,2013-09-13 13:15:00,
2013-09-13 09:17:00,57.1,56.0,29.83,North,355,0.0,2.0,96,0.00,,,0.00,Wunderground v.1.13,2013-09-13 13:17:00,
2013-09-13 09:20:00,62.8,57.2,29.84,N/A,-737280,0.0,0.0,82,0.00,,,0.00,Wunderground v.1.13,2013-09-13 13:20:00,
2013-09-13 09:22:00,57.2,56.1,29.84,North,355,0.0,1.0,96,0.00,,,0.00,Wunderground v.1.13,2013-09-13 13:22:00,
2013-09-13 09:25:00,62.5,56.6,29.84,NNW,338,0.0,1.0,81,0.00,,,0.00,Wunderground v.1.13,2013-09-13 13:25:00,
2013-09-13 09:27:00,57.4,56.6,29.84,North,355,0.0,0.0,97,0.00,,,0.00,Wunderground v.1.13,2013-09-13 13:27:00,
2013-09-13 09:30:00,62.4,56.5,29.84,NNW,338,0.0,1.0,81,0.00,,,0.00,Wunderground v.1.13,2013-09-13 13:30:00,
2013-09-13 09:32:00,57.8,57.0,29.83,North,355,0.0,2.0,97,0.00,,,0.00,Wunderground v.1.13,2013-09-13 13:32:00,
2013-09-13 09:35:00,62.2,56.0,29.84,WNW,293,1.0,6.0,80,0.00,,,0.00,Wunderground v.1.13,2013-09-13 13:35:00,
2013-09-13 09:37:00,58.0,57.2,29.83,North,355,0.0,1.0,97,0.00,,,0.00,Wunderground v.1.13,2013-09-13 13:37:00,
2013-09-13 09:40:00,62.3,56.4,29.84,NW,315,1.0,3.0,81,0.00,,,0.00,Wunderground v.1.13,2013-09-13 13:40:00,
2013-09-13 09:42:00,58.4,57.6,29.83,North,350,0.0,1.0,97,0.00,,,0.00,Wunderground v.1.13,2013-09-13 13:42:00,
2013-09-13 09:45:00,62.8,56.9,29.84,NW,315,0.0,1.0,81,0.00,,,0.00,Wunderground v.1.13,2013-09-13 13:45:00,
2013-09-13 09:47:00,58.5,57.4,29.84,NNW,346,0.0,5.0,96,0.00,,,0.00,Wunderground v.1.13,2013-09-13 13:47:00,
2013-09-13 09:50:00,62.8,56.2,29.84,N/A,-737280,0.0,0.0,79,0.00,,,0.00,Wunderground v.1.13,2013-09-13 13:50:00,
2013-09-13 09:52:00,58.6,57.5,29.83,NNW,335,0.0,5.0,96,0.00,,,0.00,Wunderground v.1.13,2013-09-13 13:52:00,
2013-09-13 09:55:00,62.9,56.6,29.84,NNW,338,0.0,1.0,80,0.00,,,0.00,Wunderground v.1.13,2013-09-13 13:55:00,
2013-09-13 09:57:00,58.7,57.3,29.83,NW,315,1.0,3.0,95,0.00,,,0.00,Wunderground v.1.13,2013-09-13 13:57:00,
2013-09-13 10:00:00,63.1,56.8,29.84,NNW,338,1.0,4.0,80,0.00,,,0.00,Wunderground v.1.13,2013-09-13 14:00:00,
2013-09-13 10:02:00,59.1,57.4,29.84,NW,316,0.0,4.0,94,0.00,,,0.00,Wunderground v.1.13,2013-09-13 14:02:00,
2013-09-13 10:05:00,63.5,56.5,29.83,NNW,338,1.0,3.0,78,0.00,,,0.00,Wunderground v.1.13,2013-09-13 14:05:00,
2013-09-13 10:07:00,59.4,57.1,29.84,NNW,336,0.0,1.0,92,0.00,,,0.00,Wunderground v.1.13,2013-09-13 14:07:00,
2013-09-13 10:10:00,63.6,56.6,29.83,NNW,338,0.0,1.0,78,0.00,,,0.00,Wunderground v.1.13,2013-09-13 14:10:00,
2013-09-13 10:12:00,59.5,57.2,29.84,NNW,343,0.0,5.0,92,0.00,,,0.00,Wunderground v.1.13,2013-09-13 14:12:00,
2013-09-13 10:15:00,63.7,56.0,29.83,NNW,338,1.0,6.0,76,0.00,,,0.00,Wunderground v.1.13,2013-09-13 14:15:00,
2013-09-13 10:17:00,60.0,57.1,29.84,NNW,344,0.0,2.0,90,0.00,,,0.00,Wunderground v.1.13,2013-09-13 14:17:00,
2013-09-13 10:20:00,65.4,57.3,29.83,NNW,338,3.0,6.0,75,0.00,,,0.00,Wunderground v.1.13,2013-09-13 14:20:00,
2013-09-13 10:22:00,60.5,56.9,29.84,NNW,344,1.0,3.0,88,0.00,,,0.00,Wunderground v.1.13,2013-09-13 14:22:00,
2013-09-13 10:25:00,65.8,56.1,29.83,NNW,338,5.0,10.0,71,0.00,,,0.00,Wunderground v.1.13,2013-09-13 14:25:00,
2013-09-13 10:27:00,60.8,56.9,29.84,NNW,344,2.0,2.0,87,0.00,,,0.00,Wunderground v.1.13,2013-09-13 14:27:00,
2013-09-13 10:30:00,65.8,56.5,29.83,North,0,1.0,4.0,72,0.00,,,0.00,Wunderground v.1.13,2013-09-13 14:30:00,
2013-09-13 10:32:00,60.9,56.7,29.84,NNW,333,0.0,5.0,86,0.00,,,0.00,Wunderground v.1.13,2013-09-13 14:32:00,
2013-09-13 10:35:00,67.1,57.8,29.83,North,0,0.0,1.0,72,0.00,,,0.00,Wunderground v.1.13,2013-09-13 14:35:00,
2013-09-13 10:37:00,61.3,56.8,29.84,NNW,334,0.0,2.0,85,0.00,,,0.00,Wunderground v.1.13,2013-09-13 14:37:00,
2013-09-13 10:40:00,66.0,55.5,29.83,North,0,6.0,9.0,69,0.00,,,0.00,Wunderground v.1.13,2013-09-13 14:40:00,
2013-09-13 10:42:00,62.0,56.8,29.84,NNW,334,0.0,0.0,83,0.00,,,0.00,Wunderground v.1.13,2013-09-13 14:42:00,
2013-09-13 10:45:00,65.1,55.8,29.83,WSW,248,0.0,1.0,72,0.00,,,0.00,Wunderground v.1.13,2013-09-13 14:45:00,
2013-09-13 10:47:00,62.2,57.0,29.84,NNW,334,1.0,1.0,83,0.00,,,0.00,Wunderground v.1.13,2013-09-13 14:47:00,
2013-09-13 10:50:00,64.9,56.0,29.83,NNW,338,2.0,5.0,73,0.00,,,0.00,Wunderground v.1.13,2013-09-13 14:50:00,
2013-09-13 10:53:00,62.1,56.2,29.84,NNW,333,1.0,2.0,81,0.00,,,0.00,Wunderground v.1.13,2013-09-13 14:53:00,
2013-09-13 10:55:00,64.6,55.0,29.83,WSW,248,3.0,10.0,71,0.00,,,0.00,Wunderground v.1.13,2013-09-13 14:55:00,
2013-09-13 10:57:00,62.7,57.5,29.84,NNW,333,0.0,1.0,83,0.00,,,0.00,Wunderground v.1.13,2013-09-13 14:57:00,
2013-09-13 11:00:00,64.7,55.1,29.83,WSW,248,1.0,5.0,71,0.00,,,0.00,Wunderground v.1.13,2013-09-13 15:00:00,
2013-09-13 11:02:00,62.8,57.2,29.84,NNW,333,0.0,1.0,82,0.00,,,0.00,Wunderground v.1.13,2013-09-13 15:02:00,
2013-09-13 11:05:00,64.0,55.2,29.83,WNW,293,0.0,3.0,73,0.00,,,0.00,Wunderground v.1.13,2013-09-13 15:05:00,
2013-09-13 11:07:00,62.8,56.9,29.84,NNW,327,0.0,7.0,81,0.00,,,0.00,Wunderground v.1.13,2013-09-13 15:07:00,
2013-09-13 11:10:00,63.5,53.9,29.83,NW,315,1.0,3.0,71,0.00,,,0.00,Wunderground v.1.13,2013-09-13 15:10:00,
2013-09-13 11:12:00,62.6,56.7,29.84,NNW,327,0.0,5.0,81,0.00,,,0.00,Wunderground v.1.13,2013-09-13 15:12:00,
2013-09-13 11:15:00,63.6,54.8,29.83,WSW,248,0.0,1.0,73,0.00,,,0.00,Wunderground v.1.13,2013-09-13 15:15:00,
2013-09-13 11:17:00,62.4,56.5,29.84,NNW,327,0.0,0.0,81,0.00,,,0.00,Wunderground v.1.13,2013-09-13 15:17:00,
2013-09-13 11:20:00,64.1,55.3,29.83,WSW,248,0.0,1.0,73,0.00,,,0.00,Wunderground v.1.13,2013-09-13 15:20:00,
2013-09-13 11:22:00,62.3,56.0,29.84,NW,325,3.0,6.0,80,0.00,,,0.00,Wunderground v.1.13,2013-09-13 15:22:00,
2013-09-13 11:25:00,65.4,56.1,29.83,SW,225,0.0,1.0,72,0.00,,,0.00,Wunderground v.1.13,2013-09-13 15:25:00,
2013-09-13 11:27:00,62.3,56.0,29.84,WNW,301,0.0,1.0,80,0.00,,,0.00,Wunderground v.1.13,2013-09-13 15:27:00,
2013-09-13 11:30:00,65.6,55.9,29.83,WSW,248,1.0,1.0,71,0.00,,,0.00,Wunderground v.1.13,2013-09-13 15:30:00,
2013-09-13 11:32:00,62.7,56.8,29.84,NW,305,0.0,3.0,81,0.00,,,0.00,Wunderground v.1.13,2013-09-13 15:32:00,
2013-09-13 11:35:00,66.8,57.9,29.82,SW,225,0.0,1.0,73,0.00,,,0.00,Wunderground v.1.13,2013-09-13 15:35:00,
2013-09-13 11:37:00,62.9,56.3,29.84,NNW,336,1.0,5.0,79,0.00,,,0.00,Wunderground v.1.13,2013-09-13 15:37:00,
2013-09-13 11:40:00,66.4,55.9,29.82,North,0,0.0,1.0,69,0.00,,,0.00,Wunderground v.1.13,2013-09-13 15:40:00,
2013-09-13 11:42:00,62.9,56.6,29.84,NNW,333,0.0,1.0,80,0.00,,,0.00,Wunderground v.1.13,2013-09-13 15:42:00,
2013-09-13 11:45:00,65.6,55.9,29.82,SSW,203,2.0,4.0,71,0.00,,,0.00,Wunderground v.1.13,2013-09-13 15:45:00,
2013-09-13 11:47:00,63.0,56.7,29.84,NNW,333,1.0,2.0,80,0.00,,,0.00,Wunderground v.1.13,2013-09-13 15:47:00,
2013-09-13 11:50:00,64.9,55.3,29.83,NNE,23,6.0,18.0,71,0.00,,,0.00,Wunderground v.1.13,2013-09-13 15:50:00,
2013-09-13 11:53:00,63.4,56.8,29.83,NNW,330,0.0,1.0,79,0.00,,,0.00,Wunderground v.1.13,2013-09-13 15:53:00,
2013-09-13 11:55:00,63.2,54.8,29.83,North,0,4.0,11.0,74,0.00,,,0.00,Wunderground v.1.13,2013-09-13 15:55:00,
2013-09-13 11:58:00,63.6,56.6,29.83,NNW,329,0.0,1.0,78,0.00,,,0.00,Wunderground v.1.13,2013-09-13 15:58:00,
2013-09-13 12:00:00,61.8,54.5,29.84,North,0,1.0,6.0,77,0.00,,,0.00,Wunderground v.1.13,2013-09-13 16:00:00,
2013-09-13 12:03:00,63.5,55.8,29.83,NNW,327,0.0,4.0,76,0.00,,,0.00,Wunderground v.1.13,2013-09-13 16:03:00,
2013-09-13 12:05:00,61.1,54.9,29.84,North,0,1.0,3.0,80,0.00,,,0.00,Wunderground v.1.13,2013-09-13 16:05:00,
2013-09-13 12:08:00,64.9,58.6,29.83,NNW,335,0.0,4.0,80,0.00,,,0.00,Wunderground v.1.13,2013-09-13 16:08:00,
2013-09-13 12:10:00,61.1,55.2,29.84,NE,45,5.0,12.0,81,0.00,,,0.00,Wunderground v.1.13,2013-09-13 16:10:00,
2013-09-13 12:13:00,65.8,56.9,29.83,NNW,339,0.0,6.0,73,0.00,,,0.00,Wunderground v.1.13,2013-09-13 16:13:00,
2013-09-13 12:15:00,62.8,56.9,29.84,N/A,-737280,0.0,0.0,81,0.00,,,0.00,Wunderground v.1.13,2013-09-13 16:15:00,
2013-09-13 12:18:00,65.6,55.5,29.83,North,360,1.0,9.0,70,0.00,,,0.00,Wunderground v.1.13,2013-09-13 16:18:00,
2013-09-13 12:20:00,64.0,56.3,29.84,North,0,7.0,11.0,76,0.00,,,0.00,Wunderground v.1.13,2013-09-13 16:20:00,
2013-09-13 12:23:00,66.8,58.6,29.83,North,360,2.0,9.0,75,0.00,,,0.00,Wunderground v.1.13,2013-09-13 16:23:00,
2013-09-13 12:25:00,63.3,55.2,29.84,NNE,23,3.0,7.0,75,0.00,,,0.00,Wunderground v.1.13,2013-09-13 16:25:00,
2013-09-13 12:28:00,66.3,55.8,29.83,North,11,1.0,4.0,69,0.00,,,0.00,Wunderground v.1.13,2013-09-13 16:28:00,
2013-09-13 12:30:00,63.3,55.6,29.83,North,0,2.0,8.0,76,0.00,,,0.00,Wunderground v.1.13,2013-09-13 16:30:00,
2013-09-13 12:33:00,65.2,55.2,29.83,WSW,257,0.0,6.0,70,0.00,,,0.00,Wunderground v.1.13,2013-09-13 16:33:00,
2013-09-13 12:35:00,64.1,55.3,29.84,North,0,5.0,9.0,73,0.00,,,0.00,Wunderground v.1.13,2013-09-13 16:35:00,
2013-09-13 12:38:00,64.9,56.0,29.83,NNW,336,7.0,7.0,73,0.00,,,0.00,Wunderground v.1.13,2013-09-13 16:38:00,
2013-09-13 12:40:00,63.1,55.0,29.84,NE,45,8.0,14.0,75,0.00,,,0.00,Wunderground v.1.13,2013-09-13 16:40:00,
2013-09-13 12:43:00,64.6,55.0,29.83,WNW,293,5.0,8.0,71,0.00,,,0.00,Wunderground v.1.13,2013-09-13 16:43:00,
2013-09-13 12:45:00,62.5,54.8,29.84,North,0,1.0,5.0,76,0.00,,,0.00,Wunderground v.1.13,2013-09-13 16:45:00,
2013-09-13 12:48:00,64.7,55.5,29.83,SSW,194,0.0,3.0,72,0.00,,,0.00,Wunderground v.1.13,2013-09-13 16:48:00,
2013-09-13 12:50:00,62.1,54.4,29.84,NNE,23,2.0,7.0,76,0.00,,,0.00,Wunderground v.1.13,2013-09-13 16:50:00,
2013-09-13 12:53:00,64.2,55.4,29.83,WNW,288,0.0,10.0,73,0.00,,,0.00,Wunderground v.1.13,2013-09-13 16:53:00,
2013-09-13 12:55:00,61.6,53.6,29.84,NNW,338,1.0,3.0,75,0.00,,,0.00,Wunderground v.1.13,2013-09-13 16:55:00,
2013-09-13 12:58:00,63.6,54.0,29.83,NW,311,3.0,9.0,71,0.00,,,0.00,Wunderground v.1.13,2013-09-13 16:58:00,
2013-09-13 13:00:00,61.1,54.2,29.85,NNW,338,5.0,7.0,78,0.00,,,0.00,Wunderground v.1.13,2013-09-13 17:00:00,
2013-09-13 13:03:00,63.5,54.7,29.83,WSW,241,1.0,3.0,73,0.00,,,0.00,Wunderground v.1.13,2013-09-13 17:03:00,
2013-09-13 13:05:00,60.7,54.5,29.84,N/A,-737280,0.0,0.0,80,0.00,,,0.00,Wunderground v.1.13,2013-09-13 17:05:00,
2013-09-13 13:08:00,63.9,55.1,29.83,WSW,241,0.0,2.0,73,0.00,,,0.00,Wunderground v.1.13,2013-09-13 17:08:00,
2013-09-13 13:10:00,60.2,55.0,29.85,N/A,-737280,0.0,0.0,83,0.00,,,0.00,Wunderground v.1.13,2013-09-13 17:10:00,
2013-09-13 13:13:00,65.1,56.2,29.83,SW,235,0.0,9.0,73,0.00,,,0.00,Wunderground v.1.13,2013-09-13 17:13:00,
2013-09-13 13:15:00,59.8,55.0,29.85,NNW,338,0.0,1.0,84,0.00,,,0.00,Wunderground v.1.13,2013-09-13 17:15:00,
2013-09-13 13:18:00,65.6,56.3,29.83,WSW,247,0.0,7.0,72,0.00,,,0.00,Wunderground v.1.13,2013-09-13 17:18:00,
2013-09-13 13:20:00,59.0,54.5,29.86,NW,315,1.0,4.0,85,0.00,,,0.00,Wunderground v.1.13,2013-09-13 17:20:00,
2013-09-13 13:23:00,66.2,57.3,29.82,SW,236,0.0,4.0,73,0.00,,,0.00,Wunderground v.1.13,2013-09-13 17:23:00,
2013-09-13 13:25:00,58.1,53.9,29.86,NNW,338,2.0,5.0,86,0.00,,,0.00,Wunderground v.1.13,2013-09-13 17:25:00,
2013-09-13 13:28:00,66.7,55.8,29.82,North,350,0.0,7.0,68,0.00,,,0.00,Wunderground v.1.13,2013-09-13 17:28:00,
2013-09-13 13:30:00,57.8,54.6,29.86,North,0,0.0,3.0,89,0.00,,,0.00,Wunderground v.1.13,2013-09-13 17:30:00,
2013-09-13 13:33:00,65.8,55.7,29.82,SSW,196,2.0,7.0,70,0.00,,,0.00,Wunderground v.1.13,2013-09-13 17:33:00,
2013-09-13 13:35:00,57.6,54.4,29.86,NW,315,1.0,3.0,89,0.00,,,0.00,Wunderground v.1.13,2013-09-13 17:35:00,
2013-09-13 13:38:00,65.2,56.3,29.83,NNE,24,7.0,18.0,73,0.00,,,0.00,Wunderground v.1.13,2013-09-13 17:38:00,
2013-09-13 13:40:00,57.6,54.7,29.86,N/A,-737280,0.0,0.0,90,0.00,,,0.00,Wunderground v.1.13,2013-09-13 17:40:00,
2013-09-13 13:43:00,63.6,54.4,29.83,NNE,22,7.0,16.0,72,0.00,,,0.00,Wunderground v.1.13,2013-09-13 17:43:00,
2013-09-13 13:45:00,57.6,54.7,29.87,N/A,-737280,0.0,0.0,90,0.00,,,0.00,Wunderground v.1.13,2013-09-13 17:45:00,
2013-09-13 13:48:00,62.1,54.1,29.84,North,355,0.0,7.0,75,0.00,,,0.00,Wunderground v.1.13,2013-09-13 17:48:00,
2013-09-13 13:50:00,57.6,54.7,29.87,NW,315,0.0,1.0,90,0.00,,,0.00,Wunderground v.1.13,2013-09-13 17:50:00,
2013-09-13 13:53:00,61.1,54.5,29.84,North,360,1.0,7.0,79,0.00,,,0.00,Wunderground v.1.13,2013-09-13 17:53:00,
2013-09-13 13:55:00,57.4,54.8,29.87,NW,315,1.0,3.0,91,0.00,,,0.00,Wunderground v.1.13,2013-09-13 17:55:00,
2013-09-13 13:58:00,61.2,55.7,29.84,NNW,348,1.0,8.0,82,0.00,,,0.00,Wunderground v.1.13,2013-09-13 17:58:00,
2013-09-13 14:00:00,57.0,54.1,29.87,N/A,-737280,0.0,0.0,90,0.00,,,0.00,Wunderground v.1.13,2013-09-13 18:00:00,
2013-09-13 14:03:00,62.3,56.7,29.84,North,355,0.0,8.0,82,0.00,,,0.00,Wunderground v.1.13,2013-09-13 18:03:00,
2013-09-13 14:05:00,56.8,53.9,29.88,N/A,-737280,0.0,0.0,90,0.00,,,0.00,Wunderground v.1.13,2013-09-13 18:05:00,
2013-09-13 14:08:00,63.8,56.4,29.84,North,11,6.0,13.0,77,0.00,,,0.00,Wunderground v.1.13,2013-09-13 18:08:00,
2013-09-13 14:10:00,56.6,54.0,29.88,NNW,338,0.0,1.0,91,0.00,,,0.00,Wunderground v.1.13,2013-09-13 18:10:00,
2013-09-13 14:13:00,63.5,55.1,29.84,North,5,3.0,11.0,74,0.00,,,0.00,Wunderground v.1.13,2013-09-13 18:13:00,
2013-09-13 14:15:00,56.4,53.8,29.88,N/A,-737280,0.0,0.0,91,0.00,,,0.00,Wunderground v.1.13,2013-09-13 18:15:00,
2013-09-13 14:18:00,63.2,55.5,29.83,North,355,0.0,12.0,76,0.00,,,0.00,Wunderground v.1.13,2013-09-13 18:18:00,
2013-09-13 14:20:00,56.3,53.7,29.88,N/A,-737280,0.0,0.0,91,0.00,,,0.00,Wunderground v.1.13,2013-09-13 18:20:00,
2013-09-13 14:23:00,64.1,55.3,29.84,NNW,348,7.0,12.0,73,0.00,,,0.00,Wunderground v.1.13,2013-09-13 18:23:00,
2013-09-13 14:25:00,56.3,53.7,29.88,N/A,-737280,0.0,0.0,91,0.00,,,0.00,Wunderground v.1.13,2013-09-13 18:25:00,
2013-09-13 14:28:00,63.2,54.8,29.84,NE,46,13.0,13.0,74,0.00,,,0.00,Wunderground v.1.13,2013-09-13 18:28:00,
2013-09-13 14:30:00,56.4,54.1,29.88,N/A,-737280,0.0,0.0,92,0.00,,,0.00,Wunderground v.1.13,2013-09-13 18:30:00,
2013-09-13 14:33:00,62.6,54.6,29.84,WNW,298,0.0,10.0,75,0.00,,,0.00,Wunderground v.1.13,2013-09-13 18:33:00,
2013-09-13 14:35:00,56.5,54.2,29.88,N/A,-737280,0.0,0.0,92,0.00,,,0.00,Wunderground v.1.13,2013-09-13 18:35:00,
2013-09-13 14:38:00,62.1,54.4,29.84,NNE,31,7.0,15.0,76,0.00,,,0.00,Wunderground v.1.13,2013-09-13 18:38:00,
2013-09-13 14:40:00,56.9,54.3,29.88,N/A,-737280,0.0,0.0,91,0.00,,,0.00,Wunderground v.1.13,2013-09-13 18:40:00,
2013-09-13 14:43:00,61.7,53.7,29.84,West,269,9.0,12.0,75,0.00,,,0.00,Wunderground v.1.13,2013-09-13 18:43:00,
2013-09-13 14:45:00,58.2,55.6,29.88,N/A,-737280,0.0,0.0,91,0.00,,,0.00,Wunderground v.1.13,2013-09-13 18:45:00,
2013-09-13 14:48:00,61.2,53.9,29.85,North,350,7.0,10.0,77,0.00,,,0.00,Wunderground v.1.13,2013-09-13 18:48:00,
2013-09-13 14:50:00,59.3,55.4,29.89,N/A,-737280,0.0,0.0,87,0.00,,,0.00,Wunderground v.1.13,2013-09-13 18:50:00,
2013-09-13 14:53:00,60.7,54.1,29.84,NNW,342,0.0,5.0,79,0.00,,,0.00,Wunderground v.1.13,2013-09-13 18:53:00,
2013-09-13 14:55:00,58.9,54.1,29.89,N/A,-737280,0.0,0.0,84,0.00,,,0.00,Wunderground v.1.13,2013-09-13 18:55:00,
2013-09-13 14:58:00,60.3,54.8,29.85,NNW,342,0.0,2.0,82,0.00,,,0.00,Wunderground v.1.13,2013-09-13 18:58:00,
2013-09-13 15:00:00,58.5,54.3,29.89,N/A,-737280,0.0,0.0,86,0.00,,,0.00,Wunderground v.1.13,2013-09-13 19:00:00,
2013-09-13 15:03:00,59.9,55.1,29.85,NNW,336,0.0,2.0,84,0.00,,,0.00,Wunderground v.1.13,2013-09-13 19:03:00,
2013-09-13 15:05:00,58.4,53.9,29.89,NNW,338,0.0,1.0,85,0.00,,,0.00,Wunderground v.1.13,2013-09-13 19:05:00,
2013-09-13 15:08:00,59.2,54.4,29.86,NW,325,1.0,3.0,84,0.00,,,0.00,Wunderground v.1.13,2013-09-13 19:08:00,
2013-09-13 15:10:00,58.3,53.8,29.89,N/A,-737280,0.0,0.0,85,0.00,,,0.00,Wunderground v.1.13,2013-09-13 19:10:00,
2013-09-13 15:13:00,58.3,54.1,29.86,NW,323,1.0,3.0,86,0.00,,,0.00,Wunderground v.1.13,2013-09-13 19:13:00,
2013-09-13 15:15:00,58.1,54.2,29.89,N/A,-737280,0.0,0.0,87,0.00,,,0.00,Wunderground v.1.13,2013-09-13 19:15:00,
2013-09-13 15:18:00,57.8,54.6,29.86,NNW,338,0.0,4.0,89,0.00,,,0.00,Wunderground v.1.13,2013-09-13 19:18:00,
2013-09-13 15:20:00,58.0,54.8,29.89,NNW,338,0.0,1.0,89,0.00,,,0.00,Wunderground v.1.13,2013-09-13 19:20:00,
2013-09-13 15:23:00,57.6,54.4,29.86,NW,306,0.0,1.0,89,0.00,,,0.00,Wunderground v.1.13,2013-09-13 19:23:00,
2013-09-13 15:25:00,57.8,54.9,29.89,N/A,-737280,0.0,0.0,90,0.00,,,0.00,Wunderground v.1.13,2013-09-13 19:25:00,
2013-09-13 15:28:00,57.6,54.7,29.86,NW,308,0.0,1.0,90,0.00,,,0.00,Wunderground v.1.13,2013-09-13 19:28:00,
2013-09-13 15:30:00,57.9,55.3,29.89,N/A,-737280,0.0,0.0,91,0.00,,,0.00,Wunderground v.1.13,2013-09-13 19:30:00,
2013-09-13 15:33:00,57.5,54.6,29.87,NW,305,0.0,3.0,90,0.00,,,0.00,Wunderground v.1.13,2013-09-13 19:33:00,
2013-09-13 15:35:00,57.9,55.3,29.89,N/A,-737280,0.0,0.0,91,0.00,,,0.00,Wunderground v.1.13,2013-09-13 19:35:00,
2013-09-13 15:38:00,57.6,55.0,29.87,NW,305,0.0,1.0,91,0.00,,,0.00,Wunderground v.1.13,2013-09-13 19:38:00,
2013-09-13 15:40:00,57.9,55.3,29.89,N/A,-737280,0.0,0.0,91,0.00,,,0.00,Wunderground v.1.13,2013-09-13 19:40:00,
2013-09-13 15:43:00,57.4,54.8,29.87,NW,305,0.0,1.0,91,0.00,,,0.00,Wunderground v.1.13,2013-09-13 19:43:00,
2013-09-13 15:45:00,57.8,55.2,29.89,N/A,-737280,0.0,0.0,91,0.00,,,0.00,Wunderground v.1.13,2013-09-13 19:45:00,
2013-09-13 15:48:00,57.1,54.2,29.87,NW,309,0.0,4.0,90,0.00,,,0.00,Wunderground v.1.13,2013-09-13 19:48:00,
2013-09-13 15:50:00,57.8,54.9,29.89,N/A,-737280,0.0,0.0,90,0.00,,,0.00,Wunderground v.1.13,2013-09-13 19:50:00,
2013-09-13 15:53:00,56.8,53.9,29.88,NW,306,0.0,2.0,90,0.00,,,0.00,Wunderground v.1.13,2013-09-13 19:53:00,
2013-09-13 15:55:00,57.9,55.0,29.89,NNW,338,0.0,1.0,90,0.00,,,0.00,Wunderground v.1.13,2013-09-13 19:55:00,
2013-09-13 15:58:00,56.7,53.8,29.88,NNW,338,0.0,6.0,90,0.00,,,0.00,Wunderground v.1.13,2013-09-13 19:58:00,
2013-09-13 16:00:00,57.8,54.9,29.90,N/A,-737280,0.0,0.0,90,0.00,,,0.00,Wunderground v.1.13,2013-09-13 20:00:00,
2013-09-13 16:03:00,56.5,53.9,29.88,NNW,338,0.0,1.0,91,0.00,,,0.00,Wunderground v.1.13,2013-09-13 20:03:00,
2013-09-13 16:05:00,57.9,55.0,29.90,N/A,-737280,0.0,0.0,90,0.00,,,0.00,Wunderground v.1.13,2013-09-13 20:05:00,
2013-09-13 16:08:00,56.3,53.7,29.88,NNW,338,0.0,0.0,91,0.00,,,0.00,Wunderground v.1.13,2013-09-13 20:08:00,
2013-09-13 16:10:00,57.8,54.9,29.90,NNW,338,0.0,1.0,90,0.00,,,0.00,Wunderground v.1.13,2013-09-13 20:10:00,
2013-09-13 16:13:00,56.3,53.7,29.88,NNW,338,0.0,0.0,91,0.00,,,0.00,Wunderground v.1.13,2013-09-13 20:13:00,
2013-09-13 16:15:00,57.7,55.1,29.90,NNW,338,0.0,1.0,91,0.00,,,0.00,Wunderground v.1.13,2013-09-13 20:15:00,
2013-09-13 16:18:00,56.4,54.1,29.88,NNW,338,0.0,1.0,92,0.00,,,0.00,Wunderground v.1.13,2013-09-13 20:18:00,
2013-09-13 16:20:00,57.6,55.0,29.90,N/A,-737280,0.0,0.0,91,0.00,,,0.00,Wunderground v.1.13,2013-09-13 20:20:00,
2013-09-13 16:23:00,56.5,54.2,29.88,NNW,338,0.0,1.0,92,0.00,,,0.00,Wunderground v.1.13,2013-09-13 20:23:00,
2013-09-13 16:25:00,57.4,54.8,29.90,N/A,-737280,0.0,0.0,91,0.00,,,0.00,Wunderground v.1.13,2013-09-13 20:25:00,
2013-09-13 16:28:00,56.7,54.1,29.88,NNW,338,0.0,0.0,91,0.00,,,0.00,Wunderground v.1.13,2013-09-13 20:28:00,
2013-09-13 16:30:00,57.3,55.0,29.90,N/A,-737280,0.0,0.0,92,0.00,,,0.00,Wunderground v.1.13,2013-09-13 20:30:00,
2013-09-13 16:33:00,58.0,55.4,29.88,NNW,338,0.0,0.0,91,0.00,,,0.00,Wunderground v.1.13,2013-09-13 20:33:00,
2013-09-13 16:35:00,57.2,54.9,29.90,N/A,-737280,0.0,0.0,92,0.00,,,0.00,Wunderground v.1.13,2013-09-13 20:35:00,
2013-09-13 16:38:00,59.2,55.6,29.89,NNW,338,0.0,2.0,88,0.00,,,0.00,Wunderground v.1.13,2013-09-13 20:38:00,
2013-09-13 16:40:00,57.1,54.8,29.90,N/A,-737280,0.0,0.0,92,0.00,,,0.00,Wunderground v.1.13,2013-09-13 20:40:00,
2013-09-13 16:43:00,58.9,54.7,29.89,NNW,338,0.0,0.0,86,0.00,,,0.00,Wunderground v.1.13,2013-09-13 20:43:00,
2013-09-13 16:45:00,57.1,54.8,29.91,N/A,-737280,0.0,0.0,92,0.00,,,0.00,Wunderground v.1.13,2013-09-13 20:45:00,
2013-09-13 16:48:00,58.5,53.4,29.89,NNW,338,0.0,2.0,83,0.00,,,0.00,Wunderground v.1.13,2013-09-13 20:48:00,
2013-09-13 16:50:00,57.2,54.9,29.91,N/A,-737280,0.0,0.0,92,0.00,,,0.00,Wunderground v.1.13,2013-09-13 20:50:00,
2013-09-13 16:53:00,58.4,53.9,29.89,NNW,338,0.0,1.0,85,0.00,,,0.00,Wunderground v.1.13,2013-09-13 20:53:00,
2013-09-13 16:55:00,57.1,54.5,29.91,NNW,338,0.0,1.0,91,0.00,,,0.00,Wunderground v.1.13,2013-09-13 20:55:00,
2013-09-13 16:58:00,58.3,53.8,29.89,NNW,333,0.0,1.0,85,0.00,,,0.00,Wunderground v.1.13,2013-09-13 20:58:00,
2013-09-13 17:00:00,57.0,54.1,29.91,NNW,338,0.0,1.0,90,0.00,,,0.00,Wunderground v.1.13,2013-09-13 21:00:00,
2013-09-13 17:03:00,58.2,54.7,29.89,NNW,333,0.0,0.0,88,0.00,,,0.00,Wunderground v.1.13,2013-09-13 21:03:00,
2013-09-13 17:05:00,56.9,53.7,29.91,N/A,-737280,0.0,0.0,89,0.00,,,0.00,Wunderground v.1.13,2013-09-13 21:05:00,
2013-09-13 17:08:00,58.1,54.9,29.89,NNW,333,0.0,0.0,89,0.00,,,0.00,Wunderground v.1.13,2013-09-13 21:08:00,
2013-09-13 17:10:00,56.9,54.6,29.91,N/A,-737280,0.0,0.0,92,0.00,,,0.00,Wunderground v.1.13,2013-09-13 21:10:00,
2013-09-13 17:13:00,57.8,54.6,29.89,NNW,333,0.0,1.0,89,0.00,,,0.00,Wunderground v.1.13,2013-09-13 21:13:00,
2013-09-13 17:15:00,56.8,53.9,29.91,N/A,-737280,0.0,0.0,90,0.00,,,0.00,Wunderground v.1.13,2013-09-13 21:15:00,
2013-09-13 17:18:00,57.9,55.3,29.89,NNW,333,0.0,0.0,91,0.00,,,0.00,Wunderground v.1.13,2013-09-13 21:18:00,
2013-09-13 17:20:00,56.6,53.7,29.91,NNW,338,0.0,1.0,90,0.00,,,0.00,Wunderground v.1.13,2013-09-13 21:20:00,
2013-09-13 17:23:00,57.8,55.2,29.89,NNW,333,0.0,0.0,91,0.00,,,0.00,Wunderground v.1.13,2013-09-13 21:23:00,
2013-09-13 17:25:00,56.3,52.8,29.91,N/A,-737280,0.0,0.0,88,0.00,,,0.00,Wunderground v.1.13,2013-09-13 21:25:00,
2013-09-13 17:28:00,57.9,55.3,29.89,NNW,333,0.0,0.0,91,0.00,,,0.00,Wunderground v.1.13,2013-09-13 21:28:00,
2013-09-13 17:30:00,56.2,52.7,29.91,N/A,-737280,0.0,0.0,88,0.00,,,0.00,Wunderground v.1.13,2013-09-13 21:30:00,
2013-09-13 17:33:00,57.8,55.2,29.89,NNW,333,0.0,1.0,91,0.00,,,0.00,Wunderground v.1.13,2013-09-13 21:33:00,
2013-09-13 17:35:00,56.1,52.6,29.92,N/A,-737280,0.0,0.0,88,0.00,,,0.00,Wunderground v.1.13,2013-09-13 21:35:00,
2013-09-13 17:38:00,57.8,54.9,29.89,NNW,333,0.0,1.0,90,0.00,,,0.00,Wunderground v.1.13,2013-09-13 21:38:00,
2013-09-13 17:40:00,56.0,52.5,29.92,N/A,-737280,0.0,0.0,88,0.00,,,0.00,Wunderground v.1.13,2013-09-13 21:40:00,
2013-09-13 17:43:00,57.9,55.0,29.89,NNW,333,0.0,0.0,90,0.00,,,0.00,Wunderground v.1.13,2013-09-13 21:43:00,
2013-09-13 17:45:00,55.8,52.3,29.92,N/A,-737280,0.0,0.0,88,0.00,,,0.00,Wunderground v.1.13,2013-09-13 21:45:00,
2013-09-13 17:48:00,57.9,55.0,29.90,NNW,333,0.0,1.0,90,0.00,,,0.00,Wunderground v.1.13,2013-09-13 21:48:00,
2013-09-13 17:50:00,55.7,52.2,29.92,N/A,-737280,0.0,0.0,88,0.00,,,0.00,Wunderground v.1.13,2013-09-13 21:50:00,
2013-09-13 17:53:00,57.9,55.3,29.90,NNW,333,0.0,0.0,91,0.00,,,0.00,Wunderground v.1.13,2013-09-13 21:53:00,
2013-09-13 17:55:00,55.4,52.2,29.92,NNW,338,0.0,1.0,89,0.00,,,0.00,Wunderground v.1.13,2013-09-13 21:55:00,
2013-09-13 17:58:00,57.8,55.2,29.90,NNW,333,0.0,1.0,91,0.00,,,0.00,Wunderground v.1.13,2013-09-13 21:58:00,
2013-09-13 18:00:00,55.1,51.9,29.92,N/A,-737280,0.0,0.0,89,0.00,,,0.00,Wunderground v.1.13,2013-09-13 22:00:00,
2013-09-13 18:03:00,57.7,55.1,29.90,NNW,333,0.0,1.0,91,0.00,,,0.00,Wunderground v.1.13,2013-09-13 22:03:00,
2013-09-13 18:05:00,54.8,51.6,29.93,N/A,-737280,0.0,0.0,89,0.00,,,0.00,Wunderground v.1.13,2013-09-13 22:05:00,
2013-09-13 18:08:00,57.5,54.9,29.90,NNW,333,0.0,0.0,91,0.00,,,0.00,Wunderground v.1.13,2013-09-13 22:08:00,
2013-09-13 18:10:00,54.5,51.3,29.93,N/A,-737280,0.0,0.0,89,0.00,,,0.00,Wunderground v.1.13,2013-09-13 22:10:00,
2013-09-13 18:13:00,57.4,54.8,29.90,NNW,333,0.0,0.0,91,0.00,,,0.00,Wunderground v.1.13,2013-09-13 22:13:00,
2013-09-13 18:15:00,54.2,51.0,29.94,N/A,-737280,0.0,0.0,89,0.00,,,0.00,Wunderground v.1.13,2013-09-13 22:15:00,
2013-09-13 18:18:00,57.3,55.0,29.90,NNW,333,0.0,0.0,92,0.00,,,0.00,Wunderground v.1.13,2013-09-13 22:18:00,
2013-09-13 18:20:00,53.9,50.7,29.94,N/A,-737280,0.0,0.0,89,0.00,,,0.00,Wunderground v.1.13,2013-09-13 22:20:00,
2013-09-13 18:23:00,57.2,54.9,29.90,NNW,333,0.0,0.0,92,0.00,,,0.00,Wunderground v.1.13,2013-09-13 22:23:00,
2013-09-13 18:25:00,53.6,50.4,29.94,N/A,-737280,0.0,0.0,89,0.00,,,0.00,Wunderground v.1.13,2013-09-13 22:25:00,
2013-09-13 18:28:00,57.2,54.9,29.90,NNW,333,0.0,0.0,92,0.00,,,0.00,Wunderground v.1.13,2013-09-13 22:28:00,
2013-09-13 18:30:00,53.2,50.9,29.95,N/A,-737280,0.0,0.0,92,0.00,,,0.00,Wunderground v.1.13,2013-09-13 22:30:00,
2013-09-13 18:33:00,57.1,54.8,29.91,NNW,333,0.0,0.0,92,0.00,,,0.00,Wunderground v.1.13,2013-09-13 22:33:00,
2013-09-13 18:35:00,52.9,49.7,29.95,N/A,-737280,0.0,0.0,89,0.00,,,0.00,Wunderground v.1.13,2013-09-13 22:35:00,
2013-09-13 18:38:00,57.2,54.9,29.91,NNW,333,0.0,1.0,92,0.00,,,0.00,Wunderground v.1.13,2013-09-13 22:38:00,
2013-09-13 18:40:00,52.6,49.4,29.95,N/A,-737280,0.0,0.0,89,0.00,,,0.00,Wunderground v.1.13,2013-09-13 22:40:00,
2013-09-13 18:43:00,57.1,54.5,29.91,NNW,333,0.0,0.0,91,0.00,,,0.00,Wunderground v.1.13,2013-09-13 22:43:00,
2013-09-13 18:45:00,52.3,49.2,29.95,N/A,-737280,0.0,0.0,89,0.00,,,0.00,Wunderground v.1.13,2013-09-13 22:45:00,
2013-09-13 18:49:00,57.0,54.1,29.91,NNW,333,0.0,2.0,90,0.00,,,0.00,Wunderground v.1.13,2013-09-13 22:49:00,
2013-09-13 18:50:00,52.1,49.0,29.96,N/A,-737280,0.0,0.0,89,0.00,,,0.00,Wunderground v.1.13,2013-09-13 22:50:00,
2013-09-13 18:54:00,56.8,53.6,29.91,NNW,333,0.0,1.0,89,0.00,,,0.00,Wunderground v.1.13,2013-09-13 22:54:00,
2013-09-13 18:55:00,51.8,48.7,29.96,N/A,-737280,0.0,0.0,89,0.00,,,0.00,Wunderground v.1.13,2013-09-13 22:55:00,
2013-09-13 18:59:00,56.8,54.5,29.91,NNW,333,0.0,1.0,92,0.00,,,0.00,Wunderground v.1.13,2013-09-13 22:59:00,
2013-09-13 19:00:00,51.5,48.7,29.96,N/A,-737280,0.0,0.0,90,0.00,,,0.00,Wunderground v.1.13,2013-09-13 23:00:00,
2013-09-13 19:04:00,56.8,53.9,29.91,NNW,333,0.0,1.0,90,0.00,,,0.00,Wunderground v.1.13,2013-09-13 23:04:00,
2013-09-13 19:05:00,51.3,48.5,29.96,N/A,-737280,0.0,0.0,90,0.00,,,0.00,Wunderground v.1.13,2013-09-13 23:05:00,
2013-09-13 19:09:00,56.6,53.7,29.91,NNW,333,0.0,1.0,90,0.00,,,0.00,Wunderground v.1.13,2013-09-13 23:09:00,
2013-09-13 19:10:00,51.1,48.3,29.96,N/A,-737280,0.0,0.0,90,0.00,,,0.00,Wunderground v.1.13,2013-09-13 23:10:00,
2013-09-13 19:14:00,56.4,52.9,29.91,NNW,333,0.0,1.0,88,0.00,,,0.00,Wunderground v.1.13,2013-09-13 23:14:00,
2013-09-13 19:15:00,50.9,48.1,29.97,N/A,-737280,0.0,0.0,90,0.00,,,0.00,Wunderground v.1.13,2013-09-13 23:15:00,
2013-09-13 19:19:00,56.2,52.7,29.91,NNW,333,0.0,1.0,88,0.00,,,0.00,Wunderground v.1.13,2013-09-13 23:19:00,
2013-09-13 19:20:00,50.6,47.8,29.97,N/A,-737280,0.0,0.0,90,0.00,,,0.00,Wunderground v.1.13,2013-09-13 23:20:00,
2013-09-13 19:24:00,56.2,52.7,29.92,NNW,333,0.0,1.0,88,0.00,,,0.00,Wunderground v.1.13,2013-09-13 23:24:00,
2013-09-13 19:25:00,50.4,47.6,29.97,N/A,-737280,0.0,0.0,90,0.00,,,0.00,Wunderground v.1.13,2013-09-13 23:25:00,
2013-09-13 19:29:00,56.0,52.5,29.92,NNW,333,0.0,1.0,88,0.00,,,0.00,Wunderground v.1.13,2013-09-13 23:29:00,
2013-09-13 19:30:00,50.3,47.5,29.97,N/A,-737280,0.0,0.0,90,0.00,,,0.00,Wunderground v.1.13,2013-09-13 23:30:00,
2013-09-13 19:34:00,55.8,52.3,29.92,NNW,333,0.0,0.0,88,0.00,,,0.00,Wunderground v.1.13,2013-09-13 23:34:00,
2013-09-13 19:35:00,50.1,47.6,29.98,N/A,-737280,0.0,0.0,91,0.00,,,0.00,Wunderground v.1.13,2013-09-13 23:35:00,
2013-09-13 19:39:00,55.7,52.2,29.92,NNW,333,0.0,0.0,88,0.00,,,0.00,Wunderground v.1.13,2013-09-13 23:39:00,
2013-09-13 19:40:00,50.1,47.6,29.98,N/A,-737280,0.0,0.0,91,0.00,,,0.00,Wunderground v.1.13,2013-09-13 23:40:00,
2013-09-13 19:44:00,55.4,52.2,29.92,NNW,333,0.0,0.0,89,0.00,,,0.00,Wunderground v.1.13,2013-09-13 23:44:00,
2013-09-13 19:45:00,50.0,47.5,29.98,N/A,-737280,0.0,0.0,91,0.00,,,0.00,Wunderground v.1.13,2013-09-13 23:45:00,
2013-09-13 19:49:00,55.1,51.9,29.93,NNW,333,0.0,0.0,89,0.00,,,0.00,Wunderground v.1.13,2013-09-13 23:49:00,
2013-09-13 19:50:00,50.0,47.8,29.98,N/A,-737280,0.0,0.0,92,0.00,,,0.00,Wunderground v.1.13,2013-09-13 23:50:00,
2013-09-13 19:54:00,54.8,51.6,29.93,NNW,333,0.0,0.0,89,0.00,,,0.00,Wunderground v.1.13,2013-09-13 23:54:00,
2013-09-13 19:55:00,50.1,47.9,29.98,N/A,-737280,0.0,0.0,92,0.00,,,0.00,Wunderground v.1.13,2013-09-13 23:55:00,
2013-09-13 19:59:00,54.5,51.3,29.93,NNW,333,0.0,0.0,89,0.00,,,0.00,Wunderground v.1.13,2013-09-13 23:59:00,
2013-09-13 20:00:00,50.1,47.9,29.98,N/A,-737280,0.0,0.0,92,0.00,,,0.00,Wunderground v.1.13,2013-09-14 00:00:00,
2013-09-13 20:04:00,54.2,51.0,29.94,NNW,333,0.0,0.0,89,0.00,,,0.00,Wunderground v.1.13,2013-09-14 00:04:00,
2013-09-13 20:05:00,50.1,47.9,29.98,N/A,-737280,0.0,0.0,92,0.00,,,0.00,Wunderground v.1.13,2013-09-14 00:05:00,
2013-09-13 20:09:00,53.9,50.7,29.94,NNW,333,0.0,1.0,89,0.00,,,0.00,Wunderground v.1.13,2013-09-14 00:09:00,
2013-09-13 20:10:00,50.1,48.2,29.98,NNW,338,0.0,1.0,93,0.00,,,0.00,Wunderground v.1.13,2013-09-14 00:10:00,
2013-09-13 20:14:00,53.6,50.4,29.94,NNW,333,0.0,0.0,89,0.00,,,0.00,Wunderground v.1.13,2013-09-14 00:14:00,
2013-09-13 20:15:00,50.0,48.1,29.98,N/A,-737280,0.0,0.0,93,0.00,,,0.00,Wunderground v.1.13,2013-09-14 00:15:00,
2013-09-13 20:19:00,53.3,50.1,29.95,NNW,333,0.0,0.0,89,0.00,,,0.00,Wunderground v.1.13,2013-09-14 00:19:00,
2013-09-13 20:20:00,49.9,48.0,29.98,N/A,-737280,0.0,0.0,93,0.00,,,0.00,Wunderground v.1.13,2013-09-14 00:20:00,
2013-09-13 20:24:00,52.9,49.7,29.95,NNW,333,0.0,0.0,89,0.00,,,0.00,Wunderground v.1.13,2013-09-14 00:24:00,
2013-09-13 20:25:00,49.7,47.8,29.99,N/A,-737280,0.0,0.0,93,0.00,,,0.00,Wunderground v.1.13,2013-09-14 00:25:00,
2013-09-13 20:29:00,52.6,49.4,29.95,NNW,333,0.0,0.0,89,0.00,,,0.00,Wunderground v.1.13,2013-09-14 00:29:00,
2013-09-13 20:30:00,49.6,47.7,29.99,N/A,-737280,0.0,0.0,93,0.00,,,0.00,Wunderground v.1.13,2013-09-14 00:30:00,
2013-09-13 20:34:00,52.3,49.2,29.95,NNW,333,0.0,0.0,89,0.00,,,0.00,Wunderground v.1.13,2013-09-14 00:34:00,
2013-09-13 20:35:00,49.4,47.5,29.99,N/A,-737280,0.0,0.0,93,0.00,,,0.00,Wunderground v.1.13,2013-09-14 00:35:00,
2013-09-13 20:39:00,52.1,49.0,29.96,NNW,333,0.0,0.0,89,0.00,,,0.00,Wunderground v.1.13,2013-09-14 00:39:00,
2013-09-13 20:40:00,49.2,47.3,29.99,N/A,-737280,0.0,0.0,93,0.00,,,0.00,Wunderground v.1.13,2013-09-14 00:40:00,
2013-09-13 20:44:00,51.8,48.7,29.96,NNW,333,0.0,0.0,89,0.00,,,0.00,Wunderground v.1.13,2013-09-14 00:44:00,
2013-09-13 20:45:00,49.1,47.2,29.99,N/A,-737280,0.0,0.0,93,0.00,,,0.00,Wunderground v.1.13,2013-09-14 00:45:00,
2013-09-13 20:49:00,51.5,48.7,29.96,NNW,333,0.0,0.0,90,0.00,,,0.00,Wunderground v.1.13,2013-09-14 00:49:00,
2013-09-13 20:50:00,48.9,47.0,30.00,N/A,-737280,0.0,0.0,93,0.00,,,0.00,Wunderground v.1.13,2013-09-14 00:50:00,
2013-09-13 20:54:00,51.3,48.5,29.96,NNW,333,0.0,0.0,90,0.00,,,0.00,Wunderground v.1.13,2013-09-14 00:54:00,
2013-09-13 20:55:00,48.7,46.8,30.00,N/A,-737280,0.0,0.0,93,0.00,,,0.00,Wunderground v.1.13,2013-09-14 00:55:00,
2013-09-13 20:59:00,51.1,48.3,29.96,NNW,333,0.0,0.0,90,0.00,,,0.00,Wunderground v.1.13,2013-09-14 00:59:00,
2013-09-13 21:00:00,48.6,46.7,30.00,N/A,-737280,0.0,0.0,93,0.00,,,0.00,Wunderground v.1.13,2013-09-14 01:00:00,
2013-09-13 21:04:00,50.9,48.1,29.97,NNW,333,0.0,0.0,90,0.00,,,0.00,Wunderground v.1.13,2013-09-14 01:04:00,
2013-09-13 21:05:00,48.4,46.5,30.00,N/A,-737280,0.0,0.0,93,0.00,,,0.00,Wunderground v.1.13,2013-09-14 01:05:00,
2013-09-13 21:09:00,50.6,47.8,29.97,NNW,333,0.0,0.0,90,0.00,,,0.00,Wunderground v.1.13,2013-09-14 01:09:00,
2013-09-13 21:10:00,48.3,46.4,30.00,N/A,-737280,0.0,0.0,93,0.00,,,0.00,Wunderground v.1.13,2013-09-14 01:10:00,
2013-09-13 21:14:00,50.4,47.6,29.97,NNW,333,0.0,0.0,90,0.00,,,0.00,Wunderground v.1.13,2013-09-14 01:14:00,
2013-09-13 21:15:00,48.1,46.2,30.00,N/A,-737280,0.0,0.0,93,0.00,,,0.00,Wunderground v.1.13,2013-09-14 01:15:00,
2013-09-13 21:19:00,50.3,47.5,29.97,NNW,333,0.0,0.0,90,0.00,,,0.00,Wunderground v.1.13,2013-09-14 01:19:00,
2013-09-13 21:20:00,48.0,46.1,30.00,N/A,-737280,0.0,0.0,93,0.00,,,0.00,Wunderground v.1.13,2013-09-14 01:20:00,
2013-09-13 21:24:00,50.1,47.6,29.98,NNW,333,0.0,0.0,91,0.00,,,0.00,Wunderground v.1.13,2013-09-14 01:24:00,
2013-09-13 21:25:00,47.9,46.0,30.00,N/A,-737280,0.0,0.0,93,0.00,,,0.00,Wunderground v.1.13,2013-09-14 01:25:00,
2013-09-13 21:29:00,50.1,47.6,29.98,NNW,333,0.0,0.0,91,0.00,,,0.00,Wunderground v.1.13,2013-09-14 01:29:00,
2013-09-13 21:30:00,47.8,45.9,30.00,N/A,-737280,0.0,0.0,93,0.00,,,0.00,Wunderground v.1.13,2013-09-14 01:30:00,
2013-09-13 21:34:00,50.0,47.5,29.98,NNW,333,0.0,0.0,91,0.00,,,0.00,Wunderground v.1.13,2013-09-14 01:34:00,
2013-09-13 21:35:00,47.7,45.8,30.00,N/A,-737280,0.0,0.0,93,0.00,,,0.00,Wunderground v.1.13,2013-09-14 01:35:00,
2013-09-13 21:39:00,50.0,47.8,29.98,NNW,333,0.0,0.0,92,0.00,,,0.00,Wunderground v.1.13,2013-09-14 01:39:00,
2013-09-13 21:40:00,47.6,45.7,30.00,N/A,-737280,0.0,0.0,93,0.00,,,0.00,Wunderground v.1.13,2013-09-14 01:40:00,
2013-09-13 21:44:00,50.1,47.9,29.98,NNW,333,0.0,0.0,92,0.00,,,0.00,Wunderground v.1.13,2013-09-14 01:44:00,
2013-09-13 21:45:00,47.5,45.6,30.00,N/A,-737280,0.0,0.0,93,0.00,,,0.00,Wunderground v.1.13,2013-09-14 01:45:00,
2013-09-13 21:49:00,50.1,47.9,29.98,NNW,333,0.0,0.0,92,0.00,,,0.00,Wunderground v.1.13,2013-09-14 01:49:00,
2013-09-13 21:50:00,47.4,45.5,30.00,N/A,-737280,0.0,0.0,93,0.00,,,0.00,Wunderground v.1.13,2013-09-14 01:50:00,
2013-09-13 21:54:00,50.1,47.9,29.98,NNW,333,0.0,0.0,92,0.00,,,0.00,Wunderground v.1.13,2013-09-14 01:54:00,
2013-09-13 21:55:00,47.3,45.4,30.00,N/A,-737280,0.0,0.0,93,0.00,,,0.00,Wunderground v.1.13,2013-09-14 01:55:00,
2013-09-13 21:59:00,50.1,48.2,29.98,NNW,333,0.0,1.0,93,0.00,,,0.00,Wunderground v.1.13,2013-09-14 01:59:00,
2013-09-13 22:00:00,47.3,45.4,30.00,N/A,-737280,0.0,0.0,93,0.00,,,0.00,Wunderground v.1.13,2013-09-14 02:00:00,
2013-09-13 22:04:00,50.0,48.1,29.98,NNW,333,0.0,0.0,93,0.00,,,0.00,Wunderground v.1.13,2013-09-14 02:04:00,
2013-09-13 22:05:00,47.2,45.6,30.00,N/A,-737280,0.0,0.0,94,0.00,,,0.00,Wunderground v.1.13,2013-09-14 02:05:00,
2013-09-13 22:09:00,49.9,48.0,29.98,NNW,333,0.0,0.0,93,0.00,,,0.00,Wunderground v.1.13,2013-09-14 02:09:00,
2013-09-13 22:10:00,47.2,45.6,30.00,N/A,-737280,0.0,0.0,94,0.00,,,0.00,Wunderground v.1.13,2013-09-14 02:10:00,
2013-09-13 22:14:00,49.7,47.8,29.99,NNW,333,0.0,0.0,93,0.00,,,0.00,Wunderground v.1.13,2013-09-14 02:14:00,
2013-09-13 22:15:00,47.2,45.6,30.00,N/A,-737280,0.0,0.0,94,0.00,,,0.00,Wunderground v.1.13,2013-09-14 02:15:00,
2013-09-13 22:19:00,49.6,47.7,29.99,NNW,333,0.0,0.0,93,0.00,,,0.00,Wunderground v.1.13,2013-09-14 02:19:00,
2013-09-13 22:20:00,47.3,45.7,30.00,N/A,-737280,0.0,0.0,94,0.00,,,0.00,Wunderground v.1.13,2013-09-14 02:20:00,
2013-09-13 22:24:00,49.4,47.5,29.99,NNW,333,0.0,0.0,93,0.00,,,0.00,Wunderground v.1.13,2013-09-14 02:24:00,
2013-09-13 22:25:00,47.3,45.7,30.00,N/A,-737280,0.0,0.0,94,0.00,,,0.00,Wunderground v.1.13,2013-09-14 02:25:00,
2013-09-13 22:29:00,49.2,47.3,29.99,NNW,333,0.0,0.0,93,0.00,,,0.00,Wunderground v.1.13,2013-09-14 02:29:00,
2013-09-13 22:30:00,47.3,45.7,30.00,N/A,-737280,0.0,0.0,94,0.00,,,0.00,Wunderground v.1.13,2013-09-14 02:30:00,
2013-09-13 22:34:00,49.0,47.1,29.99,NNW,333,0.0,0.0,93,0.00,,,0.00,Wunderground v.1.13,2013-09-14 02:34:00,
2013-09-13 22:35:00,47.4,45.8,30.00,N/A,-737280,0.0,0.0,94,0.00,,,0.00,Wunderground v.1.13,2013-09-14 02:35:00,
2013-09-13 22:39:00,48.9,47.0,30.00,NNW,333,0.0,0.0,93,0.00,,,0.00,Wunderground v.1.13,2013-09-14 02:39:00,
2013-09-13 22:40:00,47.4,45.8,30.00,N/A,-737280,0.0,0.0,94,0.00,,,0.00,Wunderground v.1.13,2013-09-14 02:40:00,
2013-09-13 22:44:00,48.7,46.8,30.00,NNW,333,0.0,0.0,93,0.00,,,0.00,Wunderground v.1.13,2013-09-14 02:44:00,
2013-09-13 22:45:00,47.4,45.8,30.00,N/A,-737280,0.0,0.0,94,0.00,,,0.00,Wunderground v.1.13,2013-09-14 02:45:00,
2013-09-13 22:49:00,48.6,46.7,30.00,NNW,333,0.0,0.0,93,0.00,,,0.00,Wunderground v.1.13,2013-09-14 02:49:00,
2013-09-13 22:50:00,47.6,46.2,30.00,N/A,-737280,0.0,0.0,95,0.00,,,0.00,Wunderground v.1.13,2013-09-14 02:50:00,
2013-09-13 22:54:00,48.4,46.5,30.00,NNW,333,0.0,0.0,93,0.00,,,0.00,Wunderground v.1.13,2013-09-14 02:54:00,
2013-09-13 22:55:00,47.7,46.3,30.00,N/A,-737280,0.0,0.0,95,0.00,,,0.00,Wunderground v.1.13,2013-09-14 02:55:00,
2013-09-13 22:59:00,48.2,46.3,30.00,NNW,333,0.0,0.0,93,0.00,,,0.00,Wunderground v.1.13,2013-09-14 02:59:00,
2013-09-13 23:00:00,47.8,46.4,30.01,N/A,-737280,0.0,0.0,95,0.00,,,0.00,Wunderground v.1.13,2013-09-14 03:00:00,
2013-09-13 23:04:00,48.1,46.2,30.00,NNW,333,0.0,0.0,93,0.00,,,0.00,Wunderground v.1.13,2013-09-14 03:04:00,
2013-09-13 23:05:00,47.8,46.4,30.01,N/A,-737280,0.0,0.0,95,0.00,,,0.00,Wunderground v.1.13,2013-09-14 03:05:00,
2013-09-13 23:09:00,47.9,46.0,30.00,NNW,333,0.0,0.0,93,0.00,,,0.00,Wunderground v.1.13,2013-09-14 03:09:00,
2013-09-13 23:10:00,47.8,46.4,30.01,N/A,-737280,0.0,0.0,95,0.00,,,0.00,Wunderground v.1.13,2013-09-14 03:10:00,
2013-09-13 23:14:00,47.8,45.9,30.00,NNW,333,0.0,0.0,93,0.00,,,0.00,Wunderground v.1.13,2013-09-14 03:14:00,
2013-09-13 23:15:00,47.8,46.4,30.01,N/A,-737280,0.0,0.0,95,0.00,,,0.00,Wunderground v.1.13,2013-09-14 03:15:00,
2013-09-13 23:19:00,47.8,45.9,30.00,NNW,333,0.0,0.0,93,0.00,,,0.00,Wunderground v.1.13,2013-09-14 03:19:00,
2013-09-13 23:20:00,47.9,46.5,30.01,N/A,-737280,0.0,0.0,95,0.00,,,0.00,Wunderground v.1.13,2013-09-14 03:20:00,
2013-09-13 23:24:00,47.7,45.8,30.00,NNW,333,0.0,0.0,93,0.00,,,0.00,Wunderground v.1.13,2013-09-14 03:24:00,
2013-09-13 23:25:00,48.0,46.6,30.01,N/A,-737280,0.0,0.0,95,0.00,,,0.00,Wunderground v.1.13,2013-09-14 03:25:00,
2013-09-13 23:29:00,47.6,45.7,30.00,NNW,333,0.0,0.0,93,0.00,,,0.00,Wunderground v.1.13,2013-09-14 03:29:00,
2013-09-13 23:30:00,48.1,46.7,30.01,N/A,-737280,0.0,0.0,95,0.00,,,0.00,Wunderground v.1.13,2013-09-14 03:30:00,
2013-09-13 23:34:00,47.5,45.6,30.00,NNW,333,0.0,0.0,93,0.00,,,0.00,Wunderground v.1.13,2013-09-14 03:34:00,
2013-09-13 23:35:00,48.3,46.9,30.01,N/A,-737280,0.0,0.0,95,0.00,,,0.00,Wunderground v.1.13,2013-09-14 03:35:00,
2013-09-13 23:39:00,47.4,45.5,30.00,NNW,333,0.0,0.0,93,0.00,,,0.00,Wunderground v.1.13,2013-09-14 03:39:00,
2013-09-13 23:40:00,48.3,46.9,30.01,N/A,-737280,0.0,0.0,95,0.00,,,0.00,Wunderground v.1.13,2013-09-14 03:40:00,
2013-09-13 23:44:00,47.3,45.4,30.00,NNW,333,0.0,0.0,93,0.00,,,0.00,Wunderground v.1.13,2013-09-14 03:44:00,
2013-09-13 23:45:00,48.5,47.1,30.01,N/A,-737280,0.0,0.0,95,0.00,,,0.00,Wunderground v.1.13,2013-09-14 03:45:00,
2013-09-13 23:49:00,47.3,45.4,30.00,NNW,333,0.0,0.0,93,0.00,,,0.00,Wunderground v.1.13,2013-09-14 03:49:00,
2013-09-13 23:50:00,48.5,47.1,30.01,N/A,-737280,0.0,0.0,95,0.00,,,0.00,Wunderground v.1.13,2013-09-14 03:50:00,
2013-09-13 23:54:00,47.2,45.6,30.00,NNW,333,0.0,0.0,94,0.00,,,0.00,Wunderground v.1.13,2013-09-14 03:54:00,
2013-09-13 23:55:00,48.6,47.2,30.01,N/A,-737280,0.0,0.0,95,0.00,,,0.00,Wunderground v.1.13,2013-09-14 03:55:00,
2013-09-13 23:59:00,47.2,45.6,30.00,NNW,333,0.0,0.0,94,0.00,,,0.00,Wunderground v.1.13,2013-09-14 03:59:00,